AT784 Weather Reports


Display with metric or nautical units.
time (UTC)temp
F
wind
direction
speed
MPH
gust
MPH
rain 1hr
in
rain 24hr
in
rain mn
in
humidity
%
barometer
mb
20260506141106 50 218 1.0 3.0 0.00 0.00 0.00 49 1012.5
20260506141027 50 220 1.0 3.0 0.00 0.00 0.00 49 1012.5
20260506140906 50 0 0.0 3.0 0.00 0.00 0.00 51 1012.5
20260506140806 50 0 0.0 2.0 0.00 0.00 0.00 50 1012.5
20260506140706 50 54 1.0 3.0 0.00 0.00 0.00 51 1012.5
20260506140626 50 48 1.0 3.0 0.00 0.00 0.00 52 1012.5
20260506140506 50 44 1.0 3.0 0.00 0.00 0.00 53 1012.5
20260506140427 50 42 1.0 3.0 0.00 0.00 0.00 53 1012.5
20260506140305 49 27 1.0 3.0 0.00 0.00 0.00 54 1012.6
20260506140205 49 31 1.0 3.0 0.00 0.00 0.00 53 1012.6
20260506140106 49 18 1.0 3.0 0.00 0.00 0.00 53 1012.6
20260506140006 49 4 1.0 3.0 0.00 0.00 0.00 53 1012.5
20260506135906 49 348 1.0 3.0 0.00 0.00 0.00 53 1012.5
20260506135805 49 309 1.0 3.0 0.00 0.00 0.00 54 1012.5
20260506135706 49 258 1.0 3.0 0.00 0.00 0.00 54 1012.5
20260506135606 49 244 1.0 3.0 0.00 0.00 0.00 55 1012.5
20260506135527 49 243 1.0 3.0 0.00 0.00 0.00 55 1012.5
20260506135406 48 229 1.0 3.0 0.00 0.00 0.00 54 1012.4
20260506135306 48 226 1.0 3.0 0.00 0.00 0.00 54 1012.4
20260506135206 48 224 1.0 3.0 0.00 0.00 0.00 54 1012.4
20260506135106 48 213 1.0 3.0 0.00 0.00 0.00 54 1012.3
20260506135027 48 200 1.0 3.0 0.00 0.00 0.00 53 1012.3
20260506134906 48 156 1.0 3.0 0.00 0.00 0.00 53 1012.3
20260506134806 49 129 1.0 3.0 0.00 0.00 0.00 55 1012.4
20260506134706 49 114 1.0 3.0 0.00 0.00 0.00 57 1012.4
20260506134626 49 111 1.0 3.0 0.00 0.00 0.00 56 1012.4
20260506134527 49 109 1.0 3.0 0.00 0.00 0.00 56 1012.4
20260506134406 48 109 1.0 3.0 0.00 0.00 0.00 57 1012.4
20260506134306 48 108 1.0 3.0 0.00 0.00 0.00 57 1012.4
20260506134206 48 109 1.0 3.0 0.00 0.00 0.00 57 1012.3
20260506134106 48 110 1.0 3.0 0.00 0.00 0.00 59 1012.3
20260506134006 48 108 1.0 3.0 0.00 0.00 0.00 59 1012.3
20260506133927 48 106 1.0 3.0 0.00 0.00 0.00 60 1012.3
20260506133827 48 0 0.0 2.0 0.00 0.00 0.00 59 1012.3
20260506133706 48 94 1.0 3.0 0.00 0.00 0.00 60 1012.2
20260506133606 48 0 0.0 3.0 0.00 0.00 0.00 61 1012.2
20260506133506 48 0 0.0 3.0 0.00 0.00 0.00 60 1012.2
20260506133405 48 0 0.0 3.0 0.00 0.00 0.00 60 1012.2
20260506133306 48 0 0.0 3.0 0.00 0.00 0.00 60 1012.2
20260506133206 48 91 1.0 3.0 0.00 0.00 0.00 60 1012.3
20260506133106 47 93 1.0 3.0 0.00 0.00 0.00 61 1012.3
20260506133006 47 95 1.0 3.0 0.00 0.00 0.00 62 1012.2
20260506132906 47 95 1.0 3.0 0.00 0.00 0.00 62 1012.2
20260506132806 47 100 1.0 3.0 0.00 0.00 0.00 63 1012.3
20260506132705 47 107 1.0 2.0 0.00 0.00 0.00 64 1012.2
20260506132605 47 100 1.0 2.0 0.00 0.00 0.00 63 1012.2
20260506132506 47 72 1.0 5.0 0.00 0.00 0.00 64 1012.3
20260506132406 47 73 1.0 5.0 0.00 0.00 0.00 64 1012.2
20260506132307 47 73 1.0 5.0 0.00 0.00 0.00 64 1012.2
20260506132227 47 72 1.0 5.0 0.00 0.00 0.00 64 1012.3
20260506132106 47 67 1.0 5.0 0.00 0.00 0.00 65 1012.3
20260506132006 46 64 1.0 5.0 0.00 0.00 0.00 66 1012.2
20260506131905 46 70 1.0 5.0 0.00 0.00 0.00 66 1012.2
20260506131806 46 71 1.0 5.0 0.00 0.00 0.00 67 1012.2
20260506131706 46 76 1.0 5.0 0.00 0.00 0.00 66 1012.2
20260506131606 46 83 1.0 5.0 0.00 0.00 0.00 66 1012.2
20260506131505 46 102 1.0 2.0 0.00 0.00 0.00 67 1012.1
20260506131406 46 99 1.0 2.0 0.00 0.00 0.00 67 1012.2
20260506131305 46 100 1.0 2.0 0.00 0.00 0.00 67 1012.2
20260506131226 46 102 1.0 2.0 0.00 0.00 0.00 67 1012.2
20260506131127 46 102 1.0 2.0 0.00 0.00 0.00 67 1012.2
20260506131006 46 100 1.0 4.0 0.00 0.00 0.00 67 1012.2
20260506130905 46 99 1.0 4.0 0.00 0.00 0.00 68 1012.1
20260506130826 46 99 1.0 4.0 0.00 0.00 0.00 68 1012.1
20260506130727 45 97 1.0 4.0 0.00 0.00 0.00 69 1012.2
20260506130606 45 98 1.0 4.0 0.00 0.00 0.00 68 1012.1
20260506130506 45 102 1.0 4.0 0.00 0.00 0.00 69 1012.1
20260506130406 45 107 1.0 4.0 0.00 0.00 0.00 69 1012.1
20260506130305 45 108 1.0 4.0 0.00 0.00 0.00 70 1012.1
20260506130206 45 107 1.0 4.0 0.00 0.00 0.00 70 1012.2
20260506130106 45 108 1.0 4.0 0.00 0.00 0.00 70 1012.2
20260506130006 45 110 1.0 3.0 0.00 0.00 0.00 71 1012.2
20260506125905 44 110 1.0 3.0 0.00 0.00 0.00 71 1012.2
20260506125806 44 111 1.0 3.0 0.00 0.00 0.00 71 1012.2
20260506125706 44 108 1.0 3.0 0.00 0.00 0.00 72 1012.2
20260506125606 44 109 1.0 4.0 0.00 0.00 0.00 71 1012.2
20260506125526 44 109 1.0 4.0 0.00 0.00 0.00 71 1012.2
20260506125405 44 107 1.0 4.0 0.00 0.00 0.00 71 1012.3
20260506125306 44 106 1.0 4.0 0.00 0.00 0.00 71 1012.3
20260506125206 44 107 1.0 4.0 0.00 0.00 0.00 72 1012.3
20260506125105 44 106 1.0 4.0 0.00 0.00 0.00 72 1012.3
20260506125026 43 106 1.0 4.0 0.00 0.00 0.00 72 1012.3
20260506124906 43 105 1.0 4.0 0.00 0.00 0.00 72 1012.3
20260506124805 43 106 1.0 4.0 0.00 0.00 0.00 72 1012.3
20260506124705 43 110 1.0 4.0 0.00 0.00 0.00 72 1012.3
20260506124605 43 110 1.0 4.0 0.00 0.00 0.00 73 1012.3
20260506124505 43 110 1.0 3.0 0.00 0.00 0.00 73 1012.3
20260506124406 43 110 1.0 3.0 0.00 0.00 0.00 73 1012.3
20260506124306 43 110 1.0 3.0 0.00 0.00 0.00 74 1012.3
20260506124205 43 110 1.0 3.0 0.00 0.00 0.00 74 1012.3
20260506124105 43 111 1.0 3.0 0.00 0.00 0.00 75 1012.2
20260506124006 43 111 1.0 3.0 0.00 0.00 0.00 75 1012.2
20260506123927 42 111 1.0 3.0 0.00 0.00 0.00 75 1012.2
20260506123805 42 111 1.0 3.0 0.00 0.00 0.00 74 1012.2
20260506123726 42 110 1.0 3.0 0.00 0.00 0.00 74 1012.2
20260506123606 42 109 1.0 3.0 0.00 0.00 0.00 75 1012.2
20260506123506 42 108 1.0 3.0 0.00 0.00 0.00 75 1012.2
20260506123405 42 108 1.0 3.0 0.00 0.00 0.00 75 1012.2
20260506123306 42 110 1.0 3.0 0.00 0.00 0.00 76 1012.2
20260506123206 42 0 0.0 2.0 0.00 0.00 0.00 76 1012.2
20260506123106 42 0 0.0 2.0 0.00 0.00 0.00 76 1012.3
20260506123006 42 0 0.0 2.0 0.00 0.00 0.00 76 1012.3
20260506122905 41 0 0.0 2.0 0.00 0.00 0.00 77 1012.3
20260506122805 41 0 0.0 2.0 0.00 0.00 0.00 77 1012.2
20260506122726 41 0 0.0 2.0 0.00 0.00 0.00 77 1012.2
20260506122606 41 0 0.0 2.0 0.00 0.00 0.00 77 1012.2
20260506122505 41 0 0.0 2.0 0.00 0.00 0.00 78 1012.2
20260506122405 41 0 0.0 2.0 0.00 0.00 0.00 78 1012.2
20260506122326 41 0 0.0 2.0 0.00 0.00 0.00 79 1012.2
20260506122205 40 0 0.0 2.0 0.00 0.00 0.00 79 1012.2
20260506122105 40 0 0.0 2.0 0.00 0.00 0.00 79 1012.2
20260506122006 40 0 0.0 2.0 0.00 0.00 0.00 80 1012.1
20260506121905 40 0 0.0 2.0 0.00 0.00 0.00 80 1012.1
20260506121805 40 0 0.0 0.0 0.00 0.00 0.00 80 1012.1
20260506121705 40 0 0.0 0.0 0.00 0.00 0.00 80 1012.1
20260506121605 40 0 0.0 0.0 0.00 0.00 0.00 81 1012.1
20260506121505 39 0 0.0 0.0 0.00 0.00 0.00 81 1012.1
20260506121405 39 0 0.0 0.0 0.00 0.00 0.00 81 1012.1
20260506121205 39 0 0.0 0.0 0.00 0.00 0.00 81 1012.0
20260506121106 39 0 0.0 0.0 0.00 0.00 0.00 81 1012.0
20260506121005 39 0 0.0 0.0 0.00 0.00 0.00 82 1012.0
20260506120905 39 0 0.0 0.0 0.00 0.00 0.00 82 1012.0
20260506120805 39 0 0.0 0.0 0.00 0.00 0.00 82 1011.9
20260506120705 39 0 0.0 0.0 0.00 0.00 0.00 82 1011.9
20260506120605 38 0 0.0 0.0 0.00 0.00 0.00 82 1011.9
20260506120506 38 0 0.0 0.0 0.00 0.00 0.00 82 1011.9
20260506120405 38 0 0.0 0.0 0.00 0.00 0.00 83 1011.9
20260506120305 38 0 0.0 0.0 0.00 0.00 0.00 83 1011.9
20260506120226 38 0 0.0 0.0 0.00 0.00 0.00 83 1011.9
20260506120126 38 0 0.0 0.0 0.00 0.00 0.00 83 1011.9
20260506120006 38 0 0.0 0.0 0.00 0.00 0.00 84 1011.9
20260506115927 38 0 0.0 0.0 0.00 0.00 0.00 84 1011.9
20260506115805 38 0 0.0 0.0 0.00 0.00 0.00 84 1011.9
20260506115705 38 0 0.0 0.0 0.00 0.00 0.00 84 1011.8
20260506115626 38 0 0.0 0.0 0.00 0.00 0.00 84 1011.8
20260506115505 38 0 0.0 0.0 0.00 0.00 0.00 84 1011.8
20260506115406 37 0 0.0 0.0 0.00 0.00 0.00 85 1011.7
20260506115327 37 0 0.0 0.0 0.00 0.00 0.00 85 1011.7
20260506115205 37 0 0.0 0.0 0.00 0.00 0.00 85 1011.7
20260506115105 37 0 0.0 0.0 0.00 0.00 0.00 86 1011.7
20260506115005 37 0 0.0 0.0 0.00 0.00 0.00 86 1011.7
20260506114926 37 0 0.0 0.0 0.00 0.00 0.00 86 1011.7
20260506114806 37 0 0.0 0.0 0.00 0.00 0.00 86 1011.7
20260506114726 36 0 0.0 0.0 0.00 0.00 0.00 86 1011.6
20260506114605 36 0 0.0 0.0 0.00 0.00 0.00 86 1011.6
20260506114505 36 0 0.0 0.0 0.00 0.00 0.00 86 1011.6
20260506114405 36 0 0.0 0.0 0.00 0.00 0.00 86 1011.5
20260506114327 36 0 0.0 0.0 0.00 0.00 0.00 86 1011.5
20260506114206 36 0 0.0 0.0 0.00 0.00 0.00 86 1011.5
20260506114105 36 0 0.0 0.0 0.00 0.00 0.00 86 1011.5
20260506114026 36 0 0.0 0.0 0.00 0.00 0.00 86 1011.5
20260506113926 36 0 0.0 0.0 0.00 0.00 0.00 86 1011.5
20260506113806 36 0 0.0 1.0 0.00 0.00 0.00 86 1011.5
20260506113726 36 0 0.0 1.0 0.00 0.00 0.00 86 1011.4
20260506113605 36 0 0.0 1.0 0.00 0.00 0.00 86 1011.4
20260506113505 36 0 0.0 1.0 0.00 0.00 0.00 86 1011.4
20260506113405 36 0 0.0 1.0 0.00 0.00 0.00 86 1011.3
20260506113326 36 0 0.0 1.0 0.00 0.00 0.00 87 1011.3
20260506113206 36 0 0.0 1.0 0.00 0.00 0.00 87 1011.3
20260506113105 36 0 0.0 1.0 0.00 0.00 0.00 87 1011.3
20260506113005 36 0 0.0 1.0 0.00 0.00 0.00 87 1011.3
20260506112905 36 0 0.0 1.0 0.00 0.00 0.00 86 1011.2
20260506112826 36 0 0.0 0.0 0.00 0.00 0.00 86 1011.2
20260506112706 36 0 0.0 0.0 0.00 0.00 0.00 86 1011.2
20260506112606 36 0 0.0 0.0 0.00 0.00 0.00 86 1011.2
20260506112505 35 0 0.0 0.0 0.00 0.00 0.00 86 1011.2
20260506112405 35 0 0.0 0.0 0.00 0.00 0.00 86 1011.1
20260506112306 35 0 0.0 0.0 0.00 0.00 0.00 86 1011.1
20260506112206 35 0 0.0 0.0 0.00 0.00 0.00 86 1011.1
20260506112105 35 0 0.0 0.0 0.00 0.00 0.00 86 1011.0
20260506112005 35 0 0.0 0.0 0.00 0.00 0.00 86 1011.0
20260506111906 35 0 0.0 0.0 0.00 0.00 0.00 86 1011.1
20260506111826 35 0 0.0 0.0 0.00 0.00 0.00 86 1011.1
20260506111705 35 0 0.0 0.0 0.00 0.00 0.00 86 1011.1
20260506111606 35 0 0.0 0.0 0.00 0.00 0.00 86 1011.1
20260506111505 35 0 0.0 0.0 0.00 0.00 0.00 85 1011.1
20260506111405 35 0 0.0 0.0 0.00 0.00 0.00 85 1011.0
20260506111326 36 0 0.0 0.0 0.00 0.00 0.00 86 1011.0
20260506111206 36 0 0.0 0.0 0.00 0.00 0.00 86 1011.0
20260506111126 36 0 0.0 0.0 0.00 0.00 0.00 86 1011.0
20260506111005 36 0 0.0 0.0 0.00 0.00 0.00 86 1011.0
20260506110905 36 0 0.0 0.0 0.00 0.00 0.00 86 1011.0
20260506110805 36 0 0.0 0.0 0.00 0.00 0.00 86 1010.8
20260506110705 36 0 0.0 0.0 0.00 0.00 0.00 86 1010.8
20260506110605 36 0 0.0 0.0 0.00 0.00 0.00 85 1010.8
20260506110505 36 0 0.0 0.0 0.00 0.00 0.00 85 1010.8
20260506110426 36 0 0.0 0.0 0.00 0.00 0.00 85 1010.8
20260506110305 36 0 0.0 0.0 0.00 0.00 0.00 85 1010.8
20260506110206 36 0 0.0 1.0 0.00 0.00 0.00 85 1010.8
20260506110127 36 0 0.0 1.0 0.00 0.00 0.00 85 1010.8
20260506110005 36 0 0.0 1.0 0.00 0.00 0.00 85 1010.7
20260506105905 36 0 0.0 1.0 0.00 0.00 0.00 85 1010.7
20260506105826 36 0 0.0 1.0 0.00 0.00 0.00 85 1010.7
20260506105705 36 0 0.0 1.0 0.00 0.00 0.00 85 1010.7
20260506105605 36 0 0.0 1.0 0.00 0.00 0.00 85 1010.7
20260506105505 36 0 0.0 1.0 0.00 0.00 0.00 85 1010.7
20260506105426 36 0 0.0 1.0 0.00 0.00 0.00 85 1010.7
20260506105305 36 0 0.0 1.0 0.00 0.00 0.00 85 1010.6
20260506105206 36 0 0.0 1.0 0.00 0.00 0.00 85 1010.6
20260506105105 36 0 0.0 1.0 0.00 0.00 0.00 85 1010.6
20260506105005 36 0 0.0 1.0 0.00 0.00 0.00 85 1010.7
20260506104905 36 0 0.0 1.0 0.00 0.00 0.00 85 1010.7
20260506104805 36 0 0.0 1.0 0.00 0.00 0.00 85 1010.6
20260506104705 36 0 0.0 1.0 0.00 0.00 0.00 85 1010.7
20260506104605 36 0 0.0 1.0 0.00 0.00 0.00 85 1010.7
20260506104505 36 0 0.0 0.0 0.00 0.00 0.00 85 1010.6
20260506104405 36 0 0.0 0.0 0.00 0.00 0.00 85 1010.6
20260506104305 36 0 0.0 0.0 0.00 0.00 0.00 84 1010.7
20260506104205 36 0 0.0 0.0 0.00 0.00 0.00 84 1010.6
20260506104127 36 0 0.0 0.0 0.00 0.00 0.00 84 1010.6
20260506104005 36 0 0.0 0.0 0.00 0.00 0.00 84 1010.7
20260506103905 36 0 0.0 0.0 0.00 0.00 0.00 84 1010.7
20260506103805 36 0 0.0 1.0 0.00 0.00 0.00 84 1010.7
20260506103705 36 0 0.0 1.0 0.00 0.00 0.00 84 1010.7
20260506103605 36 0 0.0 1.0 0.00 0.00 0.00 83 1010.7
20260506103505 36 0 0.0 1.0 0.00 0.00 0.00 83 1010.8
20260506103405 36 0 0.0 1.0 0.00 0.00 0.00 83 1010.8
20260506103305 36 0 0.0 1.0 0.00 0.00 0.00 83 1010.8
20260506103205 36 0 0.0 1.0 0.00 0.00 0.00 83 1010.9
20260506103105 36 0 0.0 1.0 0.00 0.00 0.00 83 1010.9
20260506103006 36 0 0.0 1.0 0.00 0.00 0.00 83 1010.9
20260506102926 36 0 0.0 1.0 0.00 0.00 0.00 83 1010.9
20260506102805 36 0 0.0 0.0 0.00 0.00 0.00 82 1010.9
20260506102726 36 0 0.0 0.0 0.00 0.00 0.00 82 1010.8
20260506102605 36 0 0.0 0.0 0.00 0.00 0.00 82 1010.8
20260506102505 36 0 0.0 0.0 0.00 0.00 0.00 82 1010.8
20260506102405 36 0 0.0 0.0 0.00 0.00 0.00 82 1010.8
20260506102306 36 0 0.0 0.0 0.00 0.00 0.00 82 1010.8
20260506102206 36 0 0.0 0.0 0.00 0.00 0.00 82 1010.7
20260506102105 36 0 0.0 0.0 0.00 0.00 0.00 82 1010.7
20260506102005 36 0 0.0 0.0 0.00 0.00 0.00 82 1010.7
20260506101926 36 0 0.0 0.0 0.00 0.00 0.00 82 1010.7
20260506101826 36 0 0.0 0.0 0.00 0.00 0.00 82 1010.7
20260506101705 36 0 0.0 0.0 0.00 0.00 0.00 81 1010.8
20260506101605 36 0 0.0 0.0 0.00 0.00 0.00 81 1010.7
20260506101505 36 0 0.0 0.0 0.00 0.00 0.00 81 1010.7
20260506101405 36 0 0.0 0.0 0.00 0.00 0.00 81 1010.8
20260506101326 36 0 0.0 0.0 0.00 0.00 0.00 80 1010.8
20260506101205 36 0 0.0 0.0 0.00 0.00 0.00 80 1010.8
20260506101105 36 0 0.0 0.0 0.00 0.00 0.00 80 1010.8
20260506101005 36 0 0.0 0.0 0.00 0.00 0.00 80 1010.8
20260506100905 36 0 0.0 0.0 0.00 0.00 0.00 80 1010.8
20260506100826 36 0 0.0 0.0 0.00 0.00 0.00 80 1010.8
20260506100705 36 0 0.0 0.0 0.00 0.00 0.00 80 1010.7
20260506100605 36 0 0.0 0.0 0.00 0.00 0.00 79 1010.8
20260506100526 36 0 0.0 0.0 0.00 0.00 0.00 79 1010.8
20260506100405 36 0 0.0 0.0 0.00 0.00 0.00 79 1010.9
20260506100305 36 0 0.0 0.0 0.00 0.00 0.00 79 1010.8
20260506100226 36 0 0.0 0.0 0.00 0.00 0.00 79 1010.8
20260506100105 37 0 0.0 0.0 0.00 0.00 0.00 79 1010.8
20260506100005 37 0 0.0 0.0 0.00 0.00 0.00 78 1010.8
20260506095905 37 0 0.0 0.0 0.00 0.00 0.00 78 1010.7
20260506095805 37 0 0.0 0.0 0.00 0.00 0.00 79 1010.7
20260506095706 37 0 0.0 0.0 0.00 0.00 0.00 79 1010.7
20260506095605 37 0 0.0 0.0 0.00 0.00 0.00 78 1010.7
20260506095505 37 0 0.0 0.0 0.00 0.00 0.00 78 1010.7
20260506095405 37 0 0.0 0.0 0.00 0.00 0.00 78 1010.6
20260506095306 37 0 0.0 0.0 0.00 0.00 0.00 78 1010.6
20260506095206 37 0 0.0 0.0 0.00 0.00 0.00 78 1010.6
20260506095126 37 0 0.0 0.0 0.00 0.00 0.00 79 1010.6
20260506095005 37 0 0.0 0.0 0.00 0.00 0.00 78 1010.6
20260506094926 37 0 0.0 0.0 0.00 0.00 0.00 78 1010.6
20260506094826 37 0 0.0 0.0 0.00 0.00 0.00 78 1010.7
20260506094705 37 0 0.0 0.0 0.00 0.00 0.00 78 1010.7
20260506094627 37 0 0.0 0.0 0.00 0.00 0.00 78 1010.7
20260506094526 37 0 0.0 0.0 0.00 0.00 0.00 77 1010.7
20260506094405 37 0 0.0 0.0 0.00 0.00 0.00 77 1010.7
20260506094305 37 0 0.0 0.0 0.00 0.00 0.00 77 1010.7
20260506094205 37 0 0.0 0.0 0.00 0.00 0.00 77 1010.7
20260506094126 37 0 0.0 0.0 0.00 0.00 0.00 77 1010.7
20260506094005 38 0 0.0 0.0 0.00 0.00 0.00 78 1010.7
20260506093905 37 0 0.0 0.0 0.00 0.00 0.00 78 1010.7
20260506093805 37 0 0.0 0.0 0.00 0.00 0.00 78 1010.7
20260506093705 37 0 0.0 0.0 0.00 0.00 0.00 78 1010.7
20260506093606 37 0 0.0 0.0 0.00 0.00 0.00 78 1010.7
20260506093505 37 0 0.0 0.0 0.00 0.00 0.00 78 1010.7
20260506093405 37 0 0.0 0.0 0.00 0.00 0.00 79 1010.7
20260506093305 37 0 0.0 0.0 0.00 0.00 0.00 79 1010.6
20260506093205 37 0 0.0 0.0 0.00 0.00 0.00 78 1010.6
20260506093105 37 0 0.0 0.0 0.00 0.00 0.00 79 1010.6
20260506093005 37 0 0.0 0.0 0.00 0.00 0.00 78 1010.6
20260506092905 37 0 0.0 0.0 0.00 0.00 0.00 78 1010.6
20260506092805 37 0 0.0 0.0 0.00 0.00 0.00 78 1010.6
20260506092705 37 0 0.0 0.0 0.00 0.00 0.00 78 1010.5
20260506092605 37 0 0.0 0.0 0.00 0.00 0.00 78 1010.5
20260506092505 37 0 0.0 0.0 0.00 0.00 0.00 78 1010.5
20260506092405 37 0 0.0 0.0 0.00 0.00 0.00 78 1010.5
20260506092306 37 0 0.0 0.0 0.00 0.00 0.00 78 1010.5
20260506092205 37 0 0.0 0.0 0.00 0.00 0.00 78 1010.4
20260506092106 37 0 0.0 0.0 0.00 0.00 0.00 78 1010.4
20260506092005 37 0 0.0 0.0 0.00 0.00 0.00 79 1010.3
20260506091905 37 0 0.0 0.0 0.00 0.00 0.00 79 1010.3
20260506091805 37 0 0.0 0.0 0.00 0.00 0.00 79 1010.3
20260506091705 37 0 0.0 0.0 0.00 0.00 0.00 79 1010.3
20260506091627 37 0 0.0 0.0 0.00 0.00 0.00 79 1010.3
20260506091505 37 0 0.0 0.0 0.00 0.00 0.00 79 1010.3
20260506091405 37 0 0.0 0.0 0.00 0.00 0.00 78 1010.2
20260506091306 37 0 0.0 0.0 0.00 0.00 0.00 79 1010.2
20260506091205 37 0 0.0 0.0 0.00 0.00 0.00 79 1010.2
20260506091105 37 0 0.0 0.0 0.00 0.00 0.00 79 1010.2
20260506091005 37 0 0.0 0.0 0.00 0.00 0.00 79 1010.2
20260506090905 37 0 0.0 0.0 0.00 0.00 0.00 79 1010.1
20260506090805 37 0 0.0 0.0 0.00 0.00 0.00 79 1010.1
20260506090726 37 0 0.0 0.0 0.00 0.00 0.00 79 1010.1
20260506090605 37 0 0.0 0.0 0.00 0.00 0.00 79 1010.1
20260506090505 37 0 0.0 0.0 0.00 0.00 0.00 79 1010.1
20260506090405 37 0 0.0 0.0 0.00 0.00 0.00 79 1010.1
20260506090305 37 0 0.0 0.0 0.00 0.00 0.00 80 1010.1
20260506090205 37 0 0.0 0.0 0.00 0.00 0.00 80 1010.1
20260506090105 37 0 0.0 0.0 0.00 0.00 0.00 80 1010.1
20260506090005 37 0 0.0 0.0 0.00 0.00 0.00 80 1010.1
20260506085905 37 0 0.0 0.0 0.00 0.00 0.00 80 1010.1
20260506085805 37 0 0.0 0.0 0.00 0.00 0.00 80 1010.1
20260506085705 37 0 0.0 0.0 0.00 0.00 0.00 80 1010.2
20260506085605 37 0 0.0 0.0 0.00 0.00 0.00 80 1010.1
20260506085505 37 0 0.0 0.0 0.00 0.00 0.00 80 1010.1
20260506085405 37 0 0.0 0.0 0.00 0.00 0.00 80 1010.1
20260506085306 37 0 0.0 0.0 0.00 0.00 0.00 80 1010.1
20260506085205 37 0 0.0 0.0 0.00 0.00 0.00 80 1010.1
20260506085105 37 0 0.0 0.0 0.00 0.00 0.00 80 1010.1
20260506085005 37 0 0.0 0.0 0.00 0.00 0.00 80 1010.1
20260506084905 37 0 0.0 0.0 0.00 0.00 0.00 80 1010.1
20260506084805 37 0 0.0 0.0 0.00 0.00 0.00 80 1010.1
20260506084705 37 0 0.0 0.0 0.00 0.00 0.00 80 1010.1
20260506084605 37 0 0.0 0.0 0.00 0.00 0.00 80 1010.1
20260506084526 37 0 0.0 0.0 0.00 0.00 0.00 80 1010.1
20260506084405 37 0 0.0 0.0 0.00 0.00 0.00 80 1010.0
20260506084305 37 0 0.0 0.0 0.00 0.00 0.00 80 1010.0
20260506084205 37 0 0.0 0.0 0.00 0.00 0.00 80 1010.0
20260506084105 37 0 0.0 0.0 0.00 0.00 0.00 81 1009.9
20260506084005 37 0 0.0 0.0 0.00 0.00 0.00 81 1009.9
20260506083905 37 0 0.0 0.0 0.00 0.00 0.00 81 1009.9
20260506083805 37 0 0.0 0.0 0.00 0.00 0.00 81 1009.9
20260506083705 37 0 0.0 0.0 0.00 0.00 0.00 81 1009.9
20260506083605 37 0 0.0 0.0 0.00 0.00 0.00 81 1009.9
20260506083505 37 0 0.0 0.0 0.00 0.00 0.00 81 1009.9
20260506083405 37 0 0.0 0.0 0.00 0.00 0.00 81 1009.9
20260506083305 37 0 0.0 0.0 0.00 0.00 0.00 81 1009.9
20260506083205 37 0 0.0 0.0 0.00 0.00 0.00 82 1009.9
20260506083105 37 0 0.0 0.0 0.00 0.00 0.00 82 1009.9
20260506083005 37 0 0.0 0.0 0.00 0.00 0.00 82 1009.9
20260506082905 37 0 0.0 0.0 0.00 0.00 0.00 81 1009.9
20260506082805 37 0 0.0 0.0 0.00 0.00 0.00 81 1009.9
20260506082705 37 0 0.0 0.0 0.00 0.00 0.00 82 1009.9
20260506082606 37 0 0.0 0.0 0.00 0.00 0.00 81 1009.9
20260506082505 37 0 0.0 0.0 0.00 0.00 0.00 81 1010.0
20260506082405 37 0 0.0 0.0 0.00 0.00 0.00 81 1010.0
20260506082306 37 0 0.0 0.0 0.00 0.00 0.00 81 1009.9
20260506082205 37 0 0.0 0.0 0.00 0.00 0.00 81 1009.9
20260506082105 37 0 0.0 0.0 0.00 0.00 0.00 81 1010.0
20260506082005 37 0 0.0 0.0 0.00 0.00 0.00 81 1009.9
20260506081927 37 0 0.0 0.0 0.00 0.00 0.00 81 1009.9
20260506081805 37 0 0.0 0.0 0.00 0.00 0.00 81 1009.9
20260506081705 37 0 0.0 0.0 0.00 0.00 0.00 81 1009.9
20260506081605 37 0 0.0 0.0 0.00 0.00 0.00 82 1009.9
20260506081526 37 0 0.0 0.0 0.00 0.00 0.00 82 1009.9
20260506081405 37 0 0.0 0.0 0.00 0.00 0.00 82 1009.9
20260506081305 37 0 0.0 0.0 0.00 0.00 0.00 82 1010.0
20260506081205 37 0 0.0 0.0 0.00 0.00 0.00 82 1010.0
20260506081105 37 0 0.0 0.0 0.00 0.00 0.00 82 1010.0
20260506081005 37 0 0.0 0.0 0.00 0.00 0.00 81 1010.0
20260506080905 37 0 0.0 0.0 0.00 0.00 0.00 81 1010.0
20260506080805 37 0 0.0 0.0 0.00 0.00 0.00 81 1009.9
20260506080705 37 0 0.0 0.0 0.00 0.00 0.00 81 1010.0
20260506080605 37 0 0.0 0.0 0.00 0.00 0.00 81 1010.0
20260506080505 37 0 0.0 0.0 0.00 0.00 0.00 81 1010.0
20260506080426 37 0 0.0 0.0 0.00 0.00 0.00 81 1010.0
20260506080305 37 0 0.0 0.0 0.00 0.00 0.00 81 1010.0
20260506080205 37 0 0.0 0.0 0.00 0.00 0.00 81 1010.0
20260506080126 37 0 0.0 0.0 0.00 0.00 0.00 81 1010.0
20260506073505 37 0 0.0 0.0 0.00 0.00 0.00 82 1010.1
20260506073405 38 0 0.0 0.0 0.00 0.00 0.00 82 1010.1
20260506073305 37 0 0.0 0.0 0.00 0.00 0.00 82 1010.1
20260506073226 38 0 0.0 0.0 0.00 0.00 0.00 82 1010.1
20260506073106 38 0 0.0 0.0 0.00 0.00 0.00 82 1010.1
20260506073005 38 0 0.0 0.0 0.00 0.00 0.00 82 1010.1
20260506072905 38 0 0.0 0.0 0.00 0.00 0.00 82 1010.1
20260506072805 38 0 0.0 1.0 0.00 0.00 0.00 82 1010.1
20260506072705 38 0 0.0 1.0 0.00 0.00 0.00 82 1010.2
20260506072605 38 0 0.0 1.0 0.00 0.00 0.00 82 1010.2
20260506072505 38 0 0.0 1.0 0.00 0.00 0.00 82 1010.2
20260506072405 38 0 0.0 1.0 0.00 0.00 0.00 83 1010.2
20260506072306 38 0 0.0 1.0 0.00 0.00 0.00 83 1010.2
20260506072205 38 0 0.0 1.0 0.00 0.00 0.00 83 1010.2
20260506072105 38 0 0.0 1.0 0.00 0.00 0.00 83 1010.2
20260506072005 38 0 0.0 1.0 0.00 0.00 0.00 83 1010.2
20260506071905 38 0 0.0 1.0 0.00 0.00 0.00 83 1010.2
20260506071805 38 0 0.0 0.0 0.00 0.00 0.00 83 1010.1
20260506071726 38 0 0.0 0.0 0.00 0.00 0.00 83 1010.1
20260506071605 38 0 0.0 0.0 0.00 0.00 0.00 83 1010.1
20260506071505 38 0 0.0 0.0 0.00 0.00 0.00 83 1010.1
20260506071404 38 0 0.0 0.0 0.00 0.00 0.00 84 1010.2
20260506071326 38 0 0.0 0.0 0.00 0.00 0.00 84 1010.2
20260506071205 38 0 0.0 0.0 0.00 0.00 0.00 84 1010.1
20260506071105 38 0 0.0 0.0 0.00 0.00 0.00 84 1010.1
20260506071004 38 0 0.0 0.0 0.00 0.00 0.00 84 1010.1
20260506070925 38 0 0.0 0.0 0.00 0.00 0.00 84 1010.1
20260506070805 38 0 0.0 0.0 0.00 0.00 0.00 83 1010.1
20260506070705 38 0 0.0 0.0 0.00 0.00 0.00 83 1010.1
20260506070605 38 0 0.0 0.0 0.00 0.00 0.00 83 1010.0
20260506070505 38 0 0.0 0.0 0.00 0.00 0.00 83 1010.0
20260506070405 38 0 0.0 0.0 0.00 0.00 0.00 84 1010.0
20260506070305 38 0 0.0 0.0 0.00 0.00 0.00 84 1010.0
20260506070205 38 0 0.0 0.0 0.00 0.00 0.00 84 1010.0
20260506070105 38 0 0.0 0.0 0.00 0.00 0.00 84 1010.0
20260506062405 39 0 0.0 0.0 0.00 0.00 0.00 83 1010.1
20260506062306 39 0 0.0 0.0 0.00 0.00 0.00 83 1010.1
20260506062205 39 0 0.0 0.0 0.00 0.00 0.00 83 1010.1
20260506062104 39 0 0.0 0.0 0.00 0.00 0.00 83 1010.1
20260506062004 39 0 0.0 0.0 0.00 0.00 0.00 83 1010.1
20260506061905 39 0 0.0 0.0 0.00 0.00 0.00 83 1010.1
20260506061805 39 0 0.0 0.0 0.00 0.00 0.00 83 1010.1
20260506061726 39 0 0.0 0.0 0.00 0.00 0.00 83 1010.1
20260506061604 39 0 0.0 0.0 0.00 0.00 0.00 82 1010.1
20260506061504 39 0 0.0 0.0 0.00 0.00 0.00 82 1010.1
20260506061405 39 0 0.0 0.0 0.00 0.00 0.00 82 1010.1
20260506061305 39 0 0.0 0.0 0.00 0.00 0.00 82 1010.1
20260506061205 39 0 0.0 0.0 0.00 0.00 0.00 82 1010.2
20260506061104 39 0 0.0 0.0 0.00 0.00 0.00 82 1010.2
20260506061004 39 0 0.0 0.0 0.00 0.00 0.00 82 1010.2
20260506060905 39 0 0.0 0.0 0.00 0.00 0.00 82 1010.2
20260506060805 39 0 0.0 0.0 0.00 0.00 0.00 82 1010.2
20260506060705 39 0 0.0 0.0 0.00 0.00 0.00 83 1010.1
20260506060605 39 0 0.0 0.0 0.00 0.00 0.00 83 1010.2
20260506060504 39 0 0.0 0.0 0.00 0.00 0.00 83 1010.2
20260506060405 39 0 0.0 0.0 0.00 0.00 0.00 83 1010.1
20260506060305 39 0 0.0 0.0 0.00 0.00 0.00 83 1010.1
20260506060205 39 0 0.0 0.0 0.00 0.00 0.00 83 1010.2
20260506060104 39 0 0.0 0.0 0.00 0.00 0.00 83 1010.1
20260506051404 40 0 0.0 0.0 0.00 0.00 0.00 81 1010.2
20260506051326 40 0 0.0 1.0 0.00 0.00 0.00 81 1010.3
20260506051205 40 0 0.0 1.0 0.00 0.00 0.00 81 1010.2
20260506051104 40 0 0.0 1.0 0.00 0.00 0.00 81 1010.2
20260506051005 40 0 0.0 1.0 0.00 0.00 0.00 81 1010.2
20260506050904 40 0 0.0 1.0 0.00 0.00 0.00 81 1010.2
20260506050805 40 0 0.0 1.0 0.00 0.00 0.00 81 1010.2
20260506050705 40 0 0.0 1.0 0.00 0.00 0.00 81 1010.1
20260506050605 40 0 0.0 1.0 0.00 0.00 0.00 81 1010.1
20260506050526 40 0 0.0 1.0 0.00 0.00 0.00 81 1010.1
20260506050404 40 0 0.0 1.0 0.00 0.00 0.00 82 1010.0
20260506050304 40 0 0.0 0.0 0.00 0.00 0.00 81 1010.0
20260506050206 40 0 0.0 0.0 0.00 0.00 0.00 81 1010.1
20260506050105 40 0 0.0 0.0 0.00 0.00 0.00 82 1010.1
20260506045105 40 0 0.0 0.0 0.00 0.00 0.00 82 1010.4
20260506045004 40 0 0.0 0.0 0.00 0.00 0.00 82 1010.4
20260506044904 40 0 0.0 0.0 0.00 0.00 0.00 82 1010.4
20260506044805 40 0 0.0 0.0 0.00 0.00 0.00 82 1010.4
20260506044705 40 0 0.0 0.0 0.00 0.00 0.00 82 1010.2
20260506044605 40 0 0.0 0.0 0.00 0.00 0.00 82 1010.2
20260506044504 40 0 0.0 0.0 0.00 0.00 0.00 82 1010.2
20260506044404 40 0 0.0 0.0 0.00 0.00 0.00 82 1010.1
20260506044304 40 0 0.0 0.0 0.00 0.00 0.00 82 1010.1
20260506044205 40 0 0.0 0.0 0.00 0.00 0.00 82 1010.0
20260506044104 40 0 0.0 0.0 0.00 0.00 0.00 82 1009.9
20260506044004 40 0 0.0 0.0 0.00 0.00 0.00 82 1009.9
20260506043904 40 0 0.0 0.0 0.00 0.00 0.00 82 1009.8
20260506043805 40 0 0.0 0.0 0.00 0.00 0.00 81 1009.8
20260506043705 40 0 0.0 0.0 0.00 0.00 0.00 81 1009.7
20260506043604 40 0 0.0 0.0 0.00 0.00 0.00 81 1009.7
20260506043505 41 0 0.0 0.0 0.00 0.00 0.00 81 1009.7
20260506043404 41 0 0.0 0.0 0.00 0.00 0.00 81 1009.7
20260506043304 41 0 0.0 0.0 0.00 0.00 0.00 81 1009.7
20260506043226 41 0 0.0 0.0 0.00 0.00 0.00 80 1009.7
20260506043104 41 0 0.0 0.0 0.00 0.00 0.00 80 1009.7
20260506043004 41 0 0.0 0.0 0.00 0.00 0.00 80 1009.7
20260506042904 41 0 0.0 0.0 0.00 0.00 0.00 80 1009.7
20260506042804 41 0 0.0 0.0 0.00 0.00 0.00 80 1009.7
20260506042705 41 0 0.0 0.0 0.00 0.00 0.00 80 1009.7
20260506042604 41 0 0.0 0.0 0.00 0.00 0.00 80 1009.7
20260506042505 41 0 0.0 0.0 0.00 0.00 0.00 80 1009.7
20260506042404 41 0 0.0 0.0 0.00 0.00 0.00 80 1009.7
20260506042305 41 0 0.0 0.0 0.00 0.00 0.00 79 1009.7
20260506042204 41 0 0.0 0.0 0.00 0.00 0.00 79 1009.7
20260506042104 41 0 0.0 0.0 0.00 0.00 0.00 79 1009.7
20260506042005 41 0 0.0 0.0 0.00 0.00 0.00 79 1009.7
20260506041925 41 0 0.0 0.0 0.00 0.00 0.00 79 1009.7
20260506041804 42 0 0.0 0.0 0.00 0.00 0.00 79 1009.7
20260506041725 42 0 0.0 0.0 0.00 0.00 0.00 79 1009.7
20260506041625 42 0 0.0 0.0 0.00 0.00 0.00 79 1009.8
20260506041505 42 0 0.0 0.0 0.00 0.00 0.00 79 1009.8
20260506041404 42 0 0.0 0.0 0.00 0.00 0.00 79 1009.8
20260506041305 42 0 0.0 0.0 0.00 0.00 0.00 78 1009.9
20260506041204 42 0 0.0 0.0 0.00 0.00 0.00 78 1009.9
20260506041104 42 0 0.0 0.0 0.00 0.00 0.00 78 1009.9
20260506041004 42 0 0.0 0.0 0.00 0.00 0.00 78 1009.9
20260506040904 42 0 0.0 0.0 0.00 0.00 0.00 78 1009.9
20260506040804 42 0 0.0 0.0 0.00 0.00 0.00 78 1009.9
20260506040705 42 0 0.0 0.0 0.00 0.00 0.00 78 1009.9
20260506040604 42 0 0.0 0.0 0.00 0.00 0.00 78 1009.9
20260506040504 42 0 0.0 0.0 0.00 0.00 0.00 78 1009.9
20260506040404 42 0 0.0 0.0 0.00 0.00 0.00 78 1009.9
20260506040304 42 0 0.0 0.0 0.00 0.00 0.00 78 1009.9
20260506040204 42 0 0.0 0.0 0.00 0.00 0.00 78 1009.9
20260506040104 42 0 0.0 0.0 0.00 0.00 0.00 77 1009.9
20260506040006 42 0 0.0 1.0 0.00 0.00 0.00 77 1009.9
20260506035905 42 0 0.0 1.0 0.00 0.00 0.00 77 1010.0
20260506035805 42 0 0.0 1.0 0.00 0.00 0.00 77 1009.9
20260506035704 42 0 0.0 1.0 0.00 0.00 0.00 77 1009.9
20260506035605 42 0 0.0 1.0 0.00 0.00 0.00 77 1009.9
20260506035504 42 0 0.0 1.0 0.00 0.00 0.00 77 1009.8
20260506035404 42 0 0.0 1.0 0.00 0.00 0.00 77 1009.8
20260506035306 42 0 0.0 1.0 0.00 0.00 0.00 77 1009.8
20260506035205 42 0 0.0 1.0 0.00 0.00 0.00 77 1009.8
20260506035104 42 0 0.0 1.0 0.00 0.00 0.00 77 1009.7
20260506035004 42 0 0.0 0.0 0.00 0.00 0.00 77 1009.7
20260506034904 42 0 0.0 0.0 0.00 0.00 0.00 77 1009.7
20260506034805 42 0 0.0 0.0 0.00 0.00 0.00 77 1009.5
20260506034704 42 0 0.0 0.0 0.00 0.00 0.00 77 1009.5
20260506034625 42 0 0.0 0.0 0.00 0.00 0.00 76 1009.5
20260506034525 42 0 0.0 0.0 0.00 0.00 0.00 76 1009.5
20260506034404 42 0 0.0 0.0 0.00 0.00 0.00 76 1009.6
20260506034304 42 0 0.0 0.0 0.00 0.00 0.00 76 1009.6
20260506034205 42 0 0.0 0.0 0.00 0.00 0.00 76 1009.6
20260506034104 42 0 0.0 0.0 0.00 0.00 0.00 76 1009.6
20260506034004 42 0 0.0 0.0 0.00 0.00 0.00 76 1009.5
20260506033904 42 0 0.0 0.0 0.00 0.00 0.00 76 1009.5
20260506033804 42 0 0.0 0.0 0.00 0.00 0.00 76 1009.5
20260506033704 42 0 0.0 0.0 0.00 0.00 0.00 76 1009.6
20260506033625 42 0 0.0 0.0 0.00 0.00 0.00 75 1009.6
20260506033504 42 0 0.0 0.0 0.00 0.00 0.00 75 1009.6
20260506033404 42 0 0.0 0.0 0.00 0.00 0.00 75 1009.6
20260506033305 42 0 0.0 0.0 0.00 0.00 0.00 75 1009.6
20260506033204 42 0 0.0 0.0 0.00 0.00 0.00 75 1009.6
20260506033125 42 0 0.0 0.0 0.00 0.00 0.00 75 1009.6
20260506033005 42 0 0.0 0.0 0.00 0.00 0.00 75 1009.6
20260506032925 42 0 0.0 0.0 0.00 0.00 0.00 75 1009.6
20260506032805 42 0 0.0 0.0 0.00 0.00 0.00 74 1009.6
20260506032704 42 0 0.0 0.0 0.00 0.00 0.00 74 1009.7
20260506032604 42 0 0.0 0.0 0.00 0.00 0.00 74 1009.7
20260506032525 43 0 0.0 0.0 0.00 0.00 0.00 74 1009.7
20260506032404 43 0 0.0 0.0 0.00 0.00 0.00 74 1009.7
20260506032325 43 0 0.0 0.0 0.00 0.00 0.00 73 1009.7
20260506032204 43 0 0.0 0.0 0.00 0.00 0.00 73 1009.8
20260506032104 43 0 0.0 1.0 0.00 0.00 0.00 73 1009.8
20260506032004 43 0 0.0 1.0 0.00 0.00 0.00 73 1009.8
20260506031904 43 0 0.0 1.0 0.00 0.00 0.00 74 1009.8
20260506031804 43 0 0.0 1.0 0.00 0.00 0.00 74 1009.8
20260506031705 43 0 0.0 1.0 0.00 0.00 0.00 74 1009.8
20260506031604 43 0 0.0 1.0 0.00 0.00 0.00 74 1009.8
20260506031504 43 0 0.0 1.0 0.00 0.00 0.00 74 1009.7
20260506031404 43 0 0.0 1.0 0.00 0.00 0.00 74 1009.7
20260506031304 43 0 0.0 1.0 0.00 0.00 0.00 74 1009.7
20260506031204 42 0 0.0 1.0 0.00 0.00 0.00 74 1009.8
20260506031104 42 0 0.0 0.0 0.00 0.00 0.00 73 1009.8
20260506031004 43 0 0.0 0.0 0.00 0.00 0.00 73 1009.9
20260506030904 42 0 0.0 0.0 0.00 0.00 0.00 73 1009.9
20260506030825 43 0 0.0 0.0 0.00 0.00 0.00 73 1009.9
20260506030726 43 0 0.0 0.0 0.00 0.00 0.00 73 1009.9
20260506030604 43 0 0.0 0.0 0.00 0.00 0.00 73 1009.9
20260506030505 43 0 0.0 0.0 0.00 0.00 0.00 73 1009.9
20260506030404 43 0 0.0 0.0 0.00 0.00 0.00 73 1009.9
20260506030304 42 0 0.0 0.0 0.00 0.00 0.00 73 1009.9
20260506030204 42 0 0.0 0.0 0.00 0.00 0.00 73 1009.9
20260506030104 42 0 0.0 0.0 0.00 0.00 0.00 72 1009.8
20260506030005 42 0 0.0 0.0 0.00 0.00 0.00 72 1009.8
20260506025904 42 0 0.0 0.0 0.00 0.00 0.00 72 1009.6
20260506025804 42 0 0.0 0.0 0.00 0.00 0.00 71 1009.6
20260506025704 42 0 0.0 0.0 0.00 0.00 0.00 71 1009.5
20260506025604 42 0 0.0 0.0 0.00 0.00 0.00 71 1009.5
20260506025504 43 0 0.0 0.0 0.00 0.00 0.00 71 1009.5
20260506025405 43 0 0.0 0.0 0.00 0.00 0.00 71 1009.5
20260506025325 43 0 0.0 0.0 0.00 0.00 0.00 71 1009.5
20260506025204 43 0 0.0 0.0 0.00 0.00 0.00 71 1009.5
20260506025125 43 0 0.0 0.0 0.00 0.00 0.00 71 1009.5
20260506025004 43 0 0.0 0.0 0.00 0.00 0.00 70 1009.5
20260506024905 43 0 0.0 0.0 0.00 0.00 0.00 70 1009.5
20260506024804 43 0 0.0 0.0 0.00 0.00 0.00 70 1009.5
20260506024704 43 0 0.0 0.0 0.00 0.00 0.00 70 1009.5
20260506024604 43 0 0.0 0.0 0.00 0.00 0.00 69 1009.5
20260506024525 43 0 0.0 0.0 0.00 0.00 0.00 69 1009.5
20260506024404 43 0 0.0 0.0 0.00 0.00 0.00 69 1009.4
20260506024304 43 0 0.0 0.0 0.00 0.00 0.00 69 1009.3
20260506024204 43 0 0.0 0.0 0.00 0.00 0.00 69 1009.3
20260506024105 43 0 0.0 0.0 0.00 0.00 0.00 69 1009.3
20260506024004 43 0 0.0 0.0 0.00 0.00 0.00 69 1009.3
20260506023905 43 0 0.0 0.0 0.00 0.00 0.00 69 1009.4
20260506023825 43 0 0.0 0.0 0.00 0.00 0.00 69 1009.4
20260506023704 43 0 0.0 0.0 0.00 0.00 0.00 69 1009.4
20260506023604 43 0 0.0 0.0 0.00 0.00 0.00 69 1009.4
20260506023504 43 0 0.0 0.0 0.00 0.00 0.00 69 1009.4
20260506023404 43 0 0.0 0.0 0.00 0.00 0.00 69 1009.3
20260506023305 43 0 0.0 0.0 0.00 0.00 0.00 69 1009.2
20260506023204 43 0 0.0 0.0 0.00 0.00 0.00 70 1009.2
20260506023125 43 0 0.0 0.0 0.00 0.00 0.00 69 1009.2
20260506023025 43 0 0.0 0.0 0.00 0.00 0.00 69 1009.2
20260506022926 43 0 0.0 0.0 0.00 0.00 0.00 69 1009.2
20260506022804 43 0 0.0 0.0 0.00 0.00 0.00 69 1009.2
20260506022704 43 0 0.0 0.0 0.00 0.00 0.00 69 1009.2
20260506022604 43 0 0.0 0.0 0.00 0.00 0.00 69 1009.2
20260506022504 43 0 0.0 0.0 0.00 0.00 0.00 69 1009.1
20260506022425 43 0 0.0 0.0 0.00 0.00 0.00 70 1009.1
20260506022306 43 0 0.0 0.0 0.00 0.00 0.00 70 1009.1
20260506022225 43 0 0.0 0.0 0.00 0.00 0.00 70 1009.1
20260506022104 43 0 0.0 0.0 0.00 0.00 0.00 69 1009.0
20260506022004 43 0 0.0 0.0 0.00 0.00 0.00 69 1009.0
20260506021904 43 0 0.0 0.0 0.00 0.00 0.00 69 1009.0
20260506021804 43 0 0.0 0.0 0.00 0.00 0.00 68 1008.9
20260506021725 43 0 0.0 0.0 0.00 0.00 0.00 68 1008.9
20260506021605 43 0 0.0 0.0 0.00 0.00 0.00 68 1008.9
20260506021525 43 0 0.0 0.0 0.00 0.00 0.00 68 1008.9
20260506021425 43 0 0.0 0.0 0.00 0.00 0.00 68 1008.8
20260506021304 43 0 0.0 0.0 0.00 0.00 0.00 67 1008.8
20260506021204 43 0 0.0 0.0 0.00 0.00 0.00 67 1008.8
20260506021125 43 0 0.0 0.0 0.00 0.00 0.00 67 1008.8
20260506021004 43 0 0.0 0.0 0.00 0.00 0.00 67 1008.8
20260506020904 43 0 0.0 0.0 0.00 0.00 0.00 66 1008.8
20260506020825 43 0 0.0 0.0 0.00 0.00 0.00 67 1008.9
20260506020705 44 0 0.0 0.0 0.00 0.00 0.00 66 1008.8
20260506020604 44 0 0.0 0.0 0.00 0.00 0.00 66 1008.8
20260506020504 44 0 0.0 0.0 0.00 0.00 0.00 66 1008.8
20260506020404 44 0 0.0 0.0 0.00 0.00 0.00 66 1008.8
20260506020304 44 0 0.0 0.0 0.00 0.00 0.00 65 1008.8
20260506020204 44 0 0.0 0.0 0.00 0.00 0.00 65 1008.8
20260506020104 44 0 0.0 0.0 0.00 0.00 0.00 65 1008.8
20260506020025 44 0 0.0 0.0 0.00 0.00 0.00 65 1008.7
20260506015904 44 0 0.0 0.0 0.00 0.00 0.00 65 1008.7
20260506015804 44 0 0.0 0.0 0.00 0.00 0.00 65 1008.7
20260506015704 44 0 0.0 0.0 0.00 0.00 0.00 65 1008.7
20260506015604 44 0 0.0 0.0 0.00 0.00 0.00 65 1008.7
20260506015504 44 0 0.0 0.0 0.00 0.00 0.00 65 1008.6
20260506015404 44 0 0.0 0.0 0.00 0.00 0.00 64 1008.7
20260506015306 44 0 0.0 0.0 0.00 0.00 0.00 64 1008.7
20260506015204 45 0 0.0 0.0 0.00 0.00 0.00 64 1008.7
20260506015104 45 0 0.0 0.0 0.00 0.00 0.00 64 1008.7
20260506015004 45 0 0.0 0.0 0.00 0.00 0.00 63 1008.6
20260506014904 45 0 0.0 0.0 0.00 0.00 0.00 63 1008.6
20260506014825 45 0 0.0 0.0 0.00 0.00 0.00 63 1008.6
20260506014704 45 0 0.0 0.0 0.00 0.00 0.00 63 1008.6
20260506014625 45 0 0.0 0.0 0.00 0.00 0.00 63 1008.6
20260506014504 46 0 0.0 0.0 0.00 0.00 0.00 62 1008.7
20260506014404 46 0 0.0 0.0 0.00 0.00 0.00 61 1008.7
20260506014304 46 0 0.0 0.0 0.00 0.00 0.00 61 1008.7
20260506014225 46 0 0.0 0.0 0.00 0.00 0.00 61 1008.6
20260506014104 46 0 0.0 0.0 0.00 0.00 0.00 61 1008.6
20260506014025 46 0 0.0 0.0 0.00 0.00 0.00 61 1008.6
20260506013904 46 0 0.0 0.0 0.00 0.00 0.00 61 1008.5
20260506013804 46 0 0.0 0.0 0.00 0.00 0.00 61 1008.5
20260506013725 46 0 0.0 0.0 0.00 0.00 0.00 60 1008.5
20260506013604 46 0 0.0 0.0 0.00 0.00 0.00 60 1008.5
20260506013525 46 0 0.0 0.0 0.00 0.00 0.00 60 1008.5
20260506013404 46 0 0.0 0.0 0.00 0.00 0.00 60 1008.5
20260506013325 46 0 0.0 0.0 0.00 0.00 0.00 60 1008.5
20260506013204 46 0 0.0 0.0 0.00 0.00 0.00 60 1008.5
20260506013104 46 0 0.0 0.0 0.00 0.00 0.00 60 1008.5
20260506013004 46 0 0.0 0.0 0.00 0.00 0.00 59 1008.5
20260506012904 46 0 0.0 0.0 0.00 0.00 0.00 59 1008.4
20260506012804 46 0 0.0 0.0 0.00 0.00 0.00 59 1008.4
20260506012726 46 0 0.0 0.0 0.00 0.00 0.00 59 1008.4
20260506012604 46 0 0.0 0.0 0.00 0.00 0.00 59 1008.4
20260506012504 46 0 0.0 1.0 0.00 0.00 0.00 59 1008.4
20260506012404 46 0 0.0 1.0 0.00 0.00 0.00 59 1008.3
20260506012307 46 0 0.0 1.0 0.00 0.00 0.00 59 1008.3
20260506012225 46 0 0.0 1.0 0.00 0.00 0.00 58 1008.3
20260506012104 47 0 0.0 1.0 0.00 0.00 0.00 58 1008.3
20260506012004 47 0 0.0 1.0 0.00 0.00 0.00 58 1008.3
20260506011904 47 0 0.0 1.0 0.00 0.00 0.00 58 1008.3
20260506011804 47 0 0.0 1.0 0.00 0.00 0.00 58 1008.4
20260506011704 47 0 0.0 1.0 0.00 0.00 0.00 58 1008.4
20260506011604 47 0 0.0 1.0 0.00 0.00 0.00 58 1008.4
20260506011504 47 0 0.0 1.0 0.00 0.00 0.00 58 1008.4
20260506011404 47 0 0.0 1.0 0.00 0.00 0.00 57 1008.4
20260506011304 47 0 0.0 1.0 0.00 0.00 0.00 57 1008.4
20260506011204 47 0 0.0 1.0 0.00 0.00 0.00 58 1008.4
20260506011104 47 0 0.0 1.0 0.00 0.00 0.00 57 1008.5
20260506011004 47 0 0.0 1.0 0.00 0.00 0.00 57 1008.5
20260506010904 47 0 0.0 1.0 0.00 0.00 0.00 57 1008.5
20260506010805 47 0 0.0 1.0 0.00 0.00 0.00 57 1008.4
20260506010704 47 0 0.0 1.0 0.00 0.00 0.00 57 1008.4
20260506010604 47 0 0.0 1.0 0.00 0.00 0.00 57 1008.4
20260506010504 47 0 0.0 1.0 0.00 0.00 0.00 57 1008.4
20260506010404 47 0 0.0 1.0 0.00 0.00 0.00 57 1008.4
20260506010303 47 0 0.0 0.0 0.00 0.00 0.00 57 1008.4
20260506010204 47 0 0.0 2.0 0.00 0.00 0.00 56 1008.4
20260506010104 47 0 0.0 2.0 0.00 0.00 0.00 56 1008.4
20260506010025 47 0 0.0 2.0 0.00 0.00 0.00 56 1008.4
20260506005904 47 0 0.0 2.0 0.00 0.00 0.00 56 1008.4
20260506005804 48 0 0.0 2.0 0.00 0.00 0.00 56 1008.3
20260506005704 48 0 0.0 2.0 0.00 0.00 0.00 56 1008.3
20260506005604 48 0 0.0 2.0 0.00 0.00 0.00 56 1008.4
20260506005504 48 0 0.0 2.0 0.00 0.00 0.00 55 1008.4
20260506005404 48 0 0.0 2.0 0.00 0.00 0.00 55 1008.4
20260506005306 48 0 0.0 2.0 0.00 0.00 0.00 55 1008.4
20260506005204 48 0 0.0 2.0 0.00 0.00 0.00 55 1008.4
20260506005104 48 0 0.0 2.0 0.00 0.00 0.00 55 1008.4
20260506005025 48 0 0.0 2.0 0.00 0.00 0.00 54 1008.4
20260506004905 48 0 0.0 1.0 0.00 0.00 0.00 54 1008.4
20260506004804 48 0 0.0 1.0 0.00 0.00 0.00 54 1008.4
20260506004704 48 0 0.0 1.0 0.00 0.00 0.00 54 1008.3
20260506004604 48 0 0.0 1.0 0.00 0.00 0.00 54 1008.3
20260506004504 48 0 0.0 1.0 0.00 0.00 0.00 54 1008.4
20260506004404 48 0 0.0 1.0 0.00 0.00 0.00 54 1008.4
20260506004304 48 0 0.0 1.0 0.00 0.00 0.00 54 1008.4
20260506004204 48 0 0.0 1.0 0.00 0.00 0.00 54 1008.3
20260506004104 48 0 0.0 2.0 0.00 0.00 0.00 54 1008.3
20260506004025 48 0 0.0 2.0 0.00 0.00 0.00 54 1008.3
20260506003904 48 0 0.0 2.0 0.00 0.00 0.00 54 1008.3
20260506003804 48 0 0.0 2.0 0.00 0.00 0.00 53 1008.3
20260506003704 48 0 0.0 2.0 0.00 0.00 0.00 54 1008.3
20260506003604 48 0 0.0 2.0 0.00 0.00 0.00 53 1008.3
20260506003505 48 0 0.0 2.0 0.00 0.00 0.00 53 1008.3
20260506003404 48 279 1.0 3.0 0.00 0.00 0.00 53 1008.3
20260506003304 48 276 1.0 4.0 0.00 0.00 0.00 53 1008.3
20260506003204 48 276 1.0 4.0 0.00 0.00 0.00 53 1008.3
20260506003104 48 276 1.0 4.0 0.00 0.00 0.00 54 1008.3
20260506003004 48 276 1.0 4.0 0.00 0.00 0.00 53 1008.3
20260506002925 48 276 1.0 4.0 0.00 0.00 0.00 53 1008.3
20260506002804 48 274 1.0 4.0 0.00 0.00 0.00 53 1008.3
20260506002704 48 275 1.0 4.0 0.00 0.00 0.00 53 1008.3
20260506002604 49 269 1.0 4.0 0.00 0.00 0.00 52 1008.3
20260506002504 49 260 1.0 4.0 0.00 0.00 0.00 52 1008.3
20260506002404 49 257 1.0 4.0 0.00 0.00 0.00 52 1008.3
20260506002306 49 256 1.0 3.0 0.00 0.00 0.00 52 1008.3
20260506002225 49 256 1.0 3.0 0.00 0.00 0.00 52 1008.3
20260506002104 49 255 1.0 3.0 0.00 0.00 0.00 52 1008.3
20260506002004 49 254 1.0 3.0 0.00 0.00 0.00 52 1008.4
20260506001904 49 252 1.0 3.0 0.00 0.00 0.00 52 1008.3
20260506001804 49 250 1.0 4.0 0.00 0.00 0.00 51 1008.3
20260506001704 49 248 1.0 4.0 0.00 0.00 0.00 51 1008.3
20260506001604 49 248 1.0 4.0 0.00 0.00 0.00 51 1008.3
20260506001504 49 247 1.0 4.0 0.00 0.00 0.00 51 1008.3
20260506001403 49 246 1.0 4.0 0.00 0.00 0.00 51 1008.3
20260506001304 49 248 1.0 4.0 0.00 0.00 0.00 51 1008.3
20260506001204 49 247 1.0 5.0 0.00 0.00 0.00 50 1008.3
20260506001104 49 247 1.0 5.0 0.00 0.00 0.00 51 1008.3
20260506001004 49 247 1.0 5.0 0.00 0.00 0.00 50 1008.3
20260506000904 49 248 1.0 5.0 0.00 0.00 0.00 50 1008.3
20260506000805 49 247 1.0 5.0 0.00 0.00 0.00 50 1008.3
20260506000725 49 246 1.0 5.0 0.00 0.00 0.00 50 1008.3
20260506000604 49 246 1.0 5.0 0.00 0.00 0.00 49 1008.3
20260506000504 50 251 1.0 5.0 0.00 0.00 0.00 50 1008.3
20260506000404 50 250 1.0 5.0 0.00 0.00 0.00 50 1008.3
20260506000304 50 247 1.0 5.0 0.00 0.00 0.00 50 1008.3
20260506000205 50 247 1.0 4.0 0.00 0.00 0.00 51 1008.3
20260506000104 50 249 1.0 4.0 0.00 0.00 0.00 51 1008.3
20260506000004 50 252 1.0 4.0 0.00 0.00 0.00 50 1008.3
20260505235925 50 251 1.0 4.0 0.00 0.00 0.00 50 1008.3
20260505235804 50 255 1.0 4.0 0.00 0.00 0.00 50 1008.4
20260505235704 50 260 1.0 4.0 0.00 0.00 0.00 50 1008.4
20260505235604 50 256 1.0 7.0 0.00 0.00 0.00 50 1008.3
20260505235504 50 254 1.0 7.0 0.00 0.00 0.00 49 1008.3
20260505235404 50 255 1.0 7.0 0.00 0.00 0.00 50 1008.3
20260505235305 50 258 1.0 7.0 0.00 0.00 0.00 50 1008.4
20260505235204 50 258 1.0 7.0 0.00 0.00 0.00 50 1008.4
20260505235124 50 258 1.0 7.0 0.00 0.00 0.00 49 1008.2
20260505235004 50 254 2.0 7.0 0.00 0.00 0.00 49 1008.2
20260505234904 50 254 2.0 7.0 0.00 0.00 0.00 49 1008.2
20260505234804 50 252 1.0 7.0 0.00 0.00 0.00 49 1008.3
20260505234704 50 249 1.0 7.0 0.00 0.00 0.00 49 1008.3
20260505234604 50 248 1.0 5.0 0.00 0.00 0.00 50 1008.2
20260505234504 50 247 2.0 5.0 0.00 0.00 0.00 49 1008.2
20260505234404 50 247 2.0 5.0 0.00 0.00 0.00 49 1008.2
20260505234304 50 247 2.0 5.0 0.00 0.00 0.00 49 1008.3
20260505234204 50 249 2.0 5.0 0.00 0.00 0.00 49 1008.3
20260505234104 50 250 2.0 5.0 0.00 0.00 0.00 48 1008.3
20260505234004 50 252 2.0 5.0 0.00 0.00 0.00 48 1008.3
20260505233925 50 253 2.0 5.0 0.00 0.00 0.00 49 1008.3
20260505233804 50 254 2.0 5.0 0.00 0.00 0.00 48 1008.3
20260505233704 50 254 2.0 5.0 0.00 0.00 0.00 48 1008.3
20260505233604 50 255 2.0 5.0 0.00 0.00 0.00 48 1008.4
20260505233503 50 255 2.0 5.0 0.00 0.00 0.00 48 1008.3
20260505233404 50 255 2.0 5.0 0.00 0.00 0.00 49 1008.3
20260505233304 50 254 2.0 5.0 0.00 0.00 0.00 48 1008.3
20260505233204 51 252 2.0 5.0 0.00 0.00 0.00 48 1008.3
20260505233104 51 249 2.0 5.0 0.00 0.00 0.00 48 1008.1
20260505233025 51 248 2.0 4.0 0.00 0.00 0.00 48 1008.1
20260505232904 51 238 1.0 4.0 0.00 0.00 0.00 48 1008.0
20260505232804 51 230 1.0 4.0 0.00 0.00 0.00 47 1008.0
20260505232703 51 229 1.0 4.0 0.00 0.00 0.00 47 1008.0
20260505232604 51 224 1.0 4.0 0.00 0.00 0.00 47 1008.0
20260505232504 51 220 1.0 4.0 0.00 0.00 0.00 47 1008.1
20260505232404 51 215 1.0 4.0 0.00 0.00 0.00 47 1008.1
20260505232305 51 223 1.0 4.0 0.00 0.00 0.00 47 1008.0
20260505232204 51 219 1.0 4.0 0.00 0.00 0.00 47 1008.0
20260505232104 51 216 1.0 4.0 0.00 0.00 0.00 46 1008.0
20260505232025 51 207 1.0 5.0 0.00 0.00 0.00 46 1008.1
20260505231925 51 225 1.0 5.0 0.00 0.00 0.00 46 1008.1
20260505231804 51 227 2.0 5.0 0.00 0.00 0.00 47 1008.2
20260505231704 51 228 2.0 5.0 0.00 0.00 0.00 47 1008.1
20260505231603 51 233 2.0 5.0 0.00 0.00 0.00 46 1008.1
20260505231503 51 233 2.0 5.0 0.00 0.00 0.00 46 1008.1
20260505231404 51 239 2.0 5.0 0.00 0.00 0.00 46 1008.1
20260505231325 51 235 2.0 5.0 0.00 0.00 0.00 46 1008.2
20260505231204 51 231 2.0 7.0 0.00 0.00 0.00 46 1008.2
20260505231103 51 232 2.0 7.0 0.00 0.00 0.00 46 1008.2
20260505231025 51 237 2.0 7.0 0.00 0.00 0.00 45 1008.2
20260505230904 51 231 2.0 7.0 0.00 0.00 0.00 46 1008.2
20260505230804 51 232 2.0 7.0 0.00 0.00 0.00 45 1008.2
20260505230703 52 226 2.0 7.0 0.00 0.00 0.00 45 1008.2
20260505230604 52 222 2.0 7.0 0.00 0.00 0.00 46 1008.2
20260505230504 52 213 2.0 7.0 0.00 0.00 0.00 45 1008.1
20260505230403 52 208 2.0 7.0 0.00 0.00 0.00 45 1008.0
20260505230304 52 202 2.0 5.0 0.00 0.00 0.00 45 1008.0
20260505230204 52 206 2.0 6.0 0.00 0.00 0.00 46 1008.1
20260505230104 52 207 2.0 6.0 0.00 0.00 0.00 46 1008.1
20260505230025 52 207 2.0 6.0 0.00 0.00 0.00 46 1008.2
20260505225904 52 204 2.0 6.0 0.00 0.00 0.00 45 1008.1
20260505225804 52 205 2.0 6.0 0.00 0.00 0.00 45 1008.1
20260505225725 52 213 2.0 6.0 0.00 0.00 0.00 45 1008.1
20260505225603 52 220 2.0 6.0 0.00 0.00 0.00 45 1008.1
20260505225504 52 229 2.0 6.0 0.00 0.00 0.00 46 1008.1
20260505225404 52 235 2.0 6.0 0.00 0.00 0.00 46 1008.0
20260505225325 52 236 2.0 6.0 0.00 0.00 0.00 46 1008.0
20260505225204 52 233 2.0 6.0 0.00 0.00 0.00 46 1008.1
20260505225125 52 233 2.0 6.0 0.00 0.00 0.00 46 1008.1
20260505225004 52 236 2.0 6.0 0.00 0.00 0.00 46 1008.2
20260505224904 52 242 2.0 6.0 0.00 0.00 0.00 47 1008.1
20260505224804 52 243 2.0 6.0 0.00 0.00 0.00 47 1008.1
20260505224704 52 243 2.0 5.0 0.00 0.00 0.00 47 1008.0
20260505224604 52 241 2.0 5.0 0.00 0.00 0.00 46 1008.1
20260505224503 52 243 2.0 5.0 0.00 0.00 0.00 47 1008.1
20260505224404 52 241 2.0 5.0 0.00 0.00 0.00 47 1008.1
20260505224304 52 246 2.0 8.0 0.00 0.00 0.00 47 1008.1
20260505224225 52 251 2.0 8.0 0.00 0.00 0.00 48 1008.2
20260505224125 52 252 2.0 8.0 0.00 0.00 0.00 48 1008.2
20260505224024 51 251 2.0 8.0 0.00 0.00 0.00 47 1008.2
20260505223904 52 250 2.0 8.0 0.00 0.00 0.00 47 1008.2
20260505223804 52 249 2.0 8.0 0.00 0.00 0.00 47 1008.2
20260505223703 51 249 2.0 8.0 0.00 0.00 0.00 47 1008.2
20260505223604 51 246 2.0 8.0 0.00 0.00 0.00 46 1008.1
20260505223504 52 242 2.0 8.0 0.00 0.00 0.00 45 1008.1
20260505223404 52 241 2.0 8.0 0.00 0.00 0.00 45 1008.1
20260505223303 52 233 1.0 6.0 0.00 0.00 0.00 45 1008.1
20260505223204 52 227 1.0 6.0 0.00 0.00 0.00 45 1008.1
20260505223103 52 223 1.0 6.0 0.00 0.00 0.00 45 1008.0
20260505223003 52 236 1.0 6.0 0.00 0.00 0.00 46 1008.0
20260505222925 52 236 1.0 7.0 0.00 0.00 0.00 46 1008.0
20260505222804 52 241 2.0 7.0 0.00 0.00 0.00 46 1007.9
20260505222725 52 241 2.0 7.0 0.00 0.00 0.00 46 1007.9
20260505222603 52 245 2.0 7.0 0.00 0.00 0.00 46 1008.0
20260505222524 52 247 2.0 7.0 0.00 0.00 0.00 45 1008.0
20260505222404 52 251 2.0 7.0 0.00 0.00 0.00 46 1008.0
20260505222305 52 250 3.0 7.0 0.00 0.00 0.00 46 1008.0
20260505222203 51 252 3.0 7.0 0.00 0.00 0.00 45 1008.0
20260505222124 51 251 3.0 7.0 0.00 0.00 0.00 45 1008.0
20260505222004 52 248 3.0 7.0 0.00 0.00 0.00 45 1008.0
20260505221925 52 250 3.0 7.0 0.00 0.00 0.00 45 1008.0
20260505221803 52 249 3.0 6.0 0.00 0.00 0.00 46 1008.1
20260505221704 52 248 3.0 6.0 0.00 0.00 0.00 46 1008.1
20260505221604 52 248 3.0 8.0 0.00 0.00 0.00 46 1008.1
20260505221504 52 247 3.0 8.0 0.00 0.00 0.00 46 1008.0
20260505221404 52 244 3.0 8.0 0.00 0.00 0.00 45 1008.0
20260505221303 52 247 3.0 9.0 0.00 0.00 0.00 45 1008.0
20260505221203 52 244 3.0 9.0 0.00 0.00 0.00 46 1008.0
20260505221125 52 245 3.0 9.0 0.00 0.00 0.00 45 1007.9
20260505221004 52 240 3.0 9.0 0.00 0.00 0.00 45 1007.9
20260505220904 52 240 3.0 9.0 0.00 0.00 0.00 46 1007.9
20260505220804 52 241 4.0 9.0 0.00 0.00 0.00 46 1008.0
20260505220703 52 241 3.0 9.0 0.00 0.00 0.00 45 1008.0
20260505220625 51 238 3.0 9.0 0.00 0.00 0.00 45 1008.0
20260505220504 52 237 3.0 9.0 0.00 0.00 0.00 45 1008.0
20260505220425 52 237 3.0 9.0 0.00 0.00 0.00 45 1008.0
20260505220303 52 236 3.0 9.0 0.00 0.00 0.00 45 1008.0
20260505220203 52 234 3.0 9.0 0.00 0.00 0.00 45 1008.0
20260505220103 52 233 3.0 9.0 0.00 0.00 0.00 45 1007.9
20260505220004 51 240 3.0 9.0 0.00 0.00 0.00 45 1008.0
20260505215904 52 242 3.0 9.0 0.00 0.00 0.00 45 1008.0
20260505215825 52 241 3.0 9.0 0.00 0.00 0.00 45 1008.0
20260505215703 52 233 3.0 9.0 0.00 0.00 0.00 45 1007.9
20260505215603 52 230 3.0 9.0 0.00 0.00 0.00 46 1007.9
20260505215504 52 227 3.0 9.0 0.00 0.00 0.00 45 1007.9
20260505215404 52 226 3.0 9.0 0.00 0.00 0.00 45 1007.9
20260505215305 52 222 3.0 9.0 0.00 0.00 0.00 45 1007.9
20260505215203 52 220 3.0 9.0 0.00 0.00 0.00 45 1007.9
20260505215103 52 217 3.0 9.0 0.00 0.00 0.00 45 1007.9
20260505215004 52 209 2.0 7.0 0.00 0.00 0.00 46 1007.9
20260505214903 52 206 2.0 8.0 0.00 0.00 0.00 46 1007.9
20260505214804 52 209 2.0 8.0 0.00 0.00 0.00 46 1007.9
20260505214703 52 221 2.0 8.0 0.00 0.00 0.00 46 1007.9
20260505214603 52 235 2.0 8.0 0.00 0.00 0.00 46 1007.9
20260505214504 52 240 3.0 8.0 0.00 0.00 0.00 47 1007.9
20260505214404 52 243 3.0 8.0 0.00 0.00 0.00 47 1007.9
20260505214325 52 243 3.0 8.0 0.00 0.00 0.00 46 1007.9
20260505214203 52 244 3.0 8.0 0.00 0.00 0.00 47 1008.0
20260505214124 52 246 3.0 8.0 0.00 0.00 0.00 47 1008.0
20260505214025 52 248 3.0 8.0 0.00 0.00 0.00 46 1008.0
20260505213903 52 248 3.0 7.0 0.00 0.00 0.00 46 1008.0
20260505213803 52 249 3.0 7.0 0.00 0.00 0.00 46 1008.0
20260505213703 52 250 3.0 7.0 0.00 0.00 0.00 46 1008.0
20260505213625 52 250 3.0 9.0 0.00 0.00 0.00 46 1008.0
20260505213504 52 248 3.0 9.0 0.00 0.00 0.00 45 1008.1
20260505213403 52 245 3.0 9.0 0.00 0.00 0.00 46 1008.1
20260505213304 52 245 3.0 9.0 0.00 0.00 0.00 47 1008.1
20260505213224 52 246 3.0 9.0 0.00 0.00 0.00 46 1008.0
20260505213103 52 245 3.0 9.0 0.00 0.00 0.00 47 1008.0
20260505213004 51 242 3.0 9.0 0.00 0.00 0.00 46 1008.0
20260505212904 51 235 3.0 9.0 0.00 0.00 0.00 46 1008.0
20260505212804 51 230 3.0 9.0 0.00 0.00 0.00 45 1008.0
20260505212703 52 227 3.0 9.0 0.00 0.00 0.00 46 1008.0
20260505212624 52 219 3.0 7.0 0.00 0.00 0.00 45 1008.0
20260505212504 52 212 3.0 7.0 0.00 0.00 0.00 45 1008.0
20260505212404 52 216 3.0 7.0 0.00 0.00 0.00 46 1008.0
20260505212305 52 213 3.0 7.0 0.00 0.00 0.00 46 1008.0
20260505212203 52 212 3.0 7.0 0.00 0.00 0.00 46 1008.1
20260505212104 52 212 2.0 7.0 0.00 0.00 0.00 47 1008.1
20260505212025 52 216 2.0 6.0 0.00 0.00 0.00 46 1008.1
20260505211903 52 231 3.0 6.0 0.00 0.00 0.00 46 1008.2
20260505211803 52 238 3.0 8.0 0.00 0.00 0.00 46 1008.1
20260505211704 52 241 3.0 8.0 0.00 0.00 0.00 46 1008.1
20260505211604 52 250 3.0 10.0 0.00 0.00 0.00 47 1008.1
20260505211504 52 251 3.0 10.0 0.00 0.00 0.00 46 1008.1
20260505211403 52 252 4.0 10.0 0.00 0.00 0.00 48 1008.1
20260505211303 52 252 4.0 10.0 0.00 0.00 0.00 48 1008.1
20260505211204 51 248 4.0 10.0 0.00 0.00 0.00 47 1008.1
20260505211104 51 249 4.0 10.0 0.00 0.00 0.00 46 1008.1
20260505211003 52 247 4.0 10.0 0.00 0.00 0.00 46 1008.1
20260505210924 52 245 4.0 10.0 0.00 0.00 0.00 47 1008.2
20260505210803 52 242 4.0 10.0 0.00 0.00 0.00 47 1008.2
20260505210704 52 243 4.0 10.0 0.00 0.00 0.00 46 1008.2
20260505210624 52 238 4.0 10.0 0.00 0.00 0.00 46 1008.3
20260505210504 52 234 4.0 9.0 0.00 0.00 0.00 46 1008.3
20260505210403 52 229 4.0 9.0 0.00 0.00 0.00 47 1008.2
20260505210325 52 231 4.0 9.0 0.00 0.00 0.00 45 1008.2
20260505210204 53 235 4.0 9.0 0.00 0.00 0.00 45 1008.2
20260505210103 53 227 4.0 9.0 0.00 0.00 0.00 46 1008.3
20260505210004 53 226 4.0 9.0 0.00 0.00 0.00 46 1008.3
20260505205903 52 224 4.0 9.0 0.00 0.00 0.00 46 1008.3
20260505205804 52 220 4.0 9.0 0.00 0.00 0.00 46 1008.2
20260505205704 52 215 3.0 9.0 0.00 0.00 0.00 45 1008.2
20260505205603 52 222 3.0 9.0 0.00 0.00 0.00 46 1008.3
20260505205503 52 228 4.0 13.0 0.00 0.00 0.00 45 1008.3
20260505205403 53 232 4.0 13.0 0.00 0.00 0.00 46 1008.3
20260505205305 53 232 4.0 13.0 0.00 0.00 0.00 47 1008.2
20260505205225 52 234 4.0 13.0 0.00 0.00 0.00 46 1008.2
20260505205104 52 239 4.0 13.0 0.00 0.00 0.00 46 1008.2
20260505205003 52 243 4.0 13.0 0.00 0.00 0.00 46 1008.2
20260505204903 52 244 4.0 13.0 0.00 0.00 0.00 46 1008.2
20260505204804 52 241 4.0 13.0 0.00 0.00 0.00 47 1008.2
20260505204704 52 241 4.0 13.0 0.00 0.00 0.00 47 1008.2
20260505204604 52 242 4.0 13.0 0.00 0.00 0.00 47 1008.2
20260505204503 52 240 4.0 12.0 0.00 0.00 0.00 46 1008.3
20260505204424 52 239 4.0 12.0 0.00 0.00 0.00 46 1008.3
20260505204304 52 237 3.0 12.0 0.00 0.00 0.00 45 1008.4
20260505204224 52 234 3.0 12.0 0.00 0.00 0.00 45 1008.4
20260505204103 52 230 3.0 8.0 0.00 0.00 0.00 46 1008.4
20260505204003 52 229 3.0 8.0 0.00 0.00 0.00 45 1008.4
20260505203903 52 218 3.0 7.0 0.00 0.00 0.00 45 1008.4
20260505203804 52 220 3.0 7.0 0.00 0.00 0.00 46 1008.3
20260505203703 52 227 3.0 7.0 0.00 0.00 0.00 46 1008.4
20260505203603 52 226 3.0 7.0 0.00 0.00 0.00 46 1008.4
20260505203524 53 224 3.0 7.0 0.00 0.00 0.00 47 1008.3
20260505203403 52 211 3.0 8.0 0.00 0.00 0.00 46 1008.3
20260505203303 52 209 3.0 8.0 0.00 0.00 0.00 46 1008.4
20260505203224 52 208 3.0 8.0 0.00 0.00 0.00 47 1008.4
20260505203103 52 216 3.0 8.0 0.00 0.00 0.00 46 1008.4
20260505203025 52 217 3.0 8.0 0.00 0.00 0.00 46 1008.5
20260505202904 52 234 3.0 8.0 0.00 0.00 0.00 47 1008.5
20260505202803 52 237 3.0 8.0 0.00 0.00 0.00 47 1008.5
20260505202703 52 236 3.0 8.0 0.00 0.00 0.00 47 1008.5
20260505202603 52 238 4.0 9.0 0.00 0.00 0.00 47 1008.5
20260505202503 52 241 4.0 9.0 0.00 0.00 0.00 48 1008.4
20260505202403 52 245 4.0 9.0 0.00 0.00 0.00 49 1008.4
20260505202306 51 249 4.0 9.0 0.00 0.00 0.00 48 1008.4
20260505202203 51 250 5.0 11.0 0.00 0.00 0.00 48 1008.4
20260505202104 51 249 4.0 11.0 0.00 0.00 0.00 49 1008.4
20260505202004 51 247 4.0 11.0 0.00 0.00 0.00 48 1008.5
20260505201903 51 246 4.0 11.0 0.00 0.00 0.00 49 1008.5
20260505201803 51 245 4.0 11.0 0.00 0.00 0.00 48 1008.5
20260505201703 51 245 4.0 11.0 0.00 0.00 0.00 48 1008.5
20260505201604 51 246 4.0 11.0 0.00 0.00 0.00 49 1008.5
20260505201503 51 247 5.0 11.0 0.00 0.00 0.00 48 1008.5
20260505201403 51 249 4.0 11.0 0.00 0.00 0.00 48 1008.5
20260505201303 51 249 4.0 11.0 0.00 0.00 0.00 48 1008.5
20260505201203 52 248 4.0 10.0 0.00 0.00 0.00 50 1008.5
20260505201103 52 246 4.0 10.0 0.00 0.00 0.00 49 1008.5
20260505201003 51 247 4.0 10.0 0.00 0.00 0.00 49 1008.5
20260505200903 51 250 4.0 10.0 0.00 0.00 0.00 50 1008.5
20260505200804 51 256 5.0 10.0 0.00 0.00 0.00 51 1008.5
20260505200725 51 256 5.0 10.0 0.00 0.00 0.00 51 1008.5
20260505200624 51 256 4.0 10.0 0.00 0.00 0.00 49 1008.5
20260505200524 51 255 4.0 10.0 0.00 0.00 0.00 51 1008.5
20260505200403 51 255 5.0 9.0 0.00 0.00 0.00 51 1008.5
20260505200303 51 256 4.0 9.0 0.00 0.00 0.00 50 1008.5
20260505200203 51 258 4.0 9.0 0.00 0.00 0.00 50 1008.5
20260505200125 51 258 4.0 10.0 0.00 0.00 0.00 50 1008.5
20260505200003 51 259 5.0 10.0 0.00 0.00 0.00 48 1008.6
20260505195924 51 258 5.0 10.0 0.00 0.00 0.00 48 1008.6
20260505195803 51 255 5.0 10.0 0.00 0.00 0.00 48 1008.6
20260505195724 51 253 5.0 10.0 0.00 0.00 0.00 47 1008.6
20260505195624 51 254 5.0 10.0 0.00 0.00 0.00 47 1008.6
20260505195503 52 252 5.0 10.0 0.00 0.00 0.00 47 1008.6
20260505195403 52 250 5.0 10.0 0.00 0.00 0.00 48 1008.6
20260505195324 52 249 5.0 10.0 0.00 0.00 0.00 48 1008.6
20260505195203 52 248 5.0 11.0 0.00 0.00 0.00 48 1008.6
20260505195124 52 248 5.0 11.0 0.00 0.00 0.00 49 1008.6
20260505195003 52 248 4.0 11.0 0.00 0.00 0.00 50 1008.6
20260505194903 52 249 5.0 11.0 0.00 0.00 0.00 49 1008.5
20260505194803 52 249 4.0 11.0 0.00 0.00 0.00 49 1008.5
20260505194703 52 251 5.0 11.0 0.00 0.00 0.00 48 1008.5
20260505194603 52 253 5.0 11.0 0.00 0.00 0.00 48 1008.3
20260505194503 52 255 5.0 11.0 0.00 0.00 0.00 49 1008.3
20260505194407 52 257 5.0 11.0 0.00 0.00 0.00 51 1008.3
20260505194306 52 259 4.0 9.0 0.00 0.00 0.00 50 1008.3
20260505194206 52 259 5.0 9.0 0.00 0.00 0.00 51 1008.3
20260505194128 52 258 5.0 12.0 0.00 0.00 0.00 50 1008.4
20260505194007 52 258 5.0 12.0 0.00 0.00 0.00 49 1008.4
20260505193906 52 259 4.0 12.0 0.00 0.00 0.00 48 1008.4
20260505193807 52 260 5.0 12.0 0.00 0.00 0.00 49 1008.4
20260505193706 52 257 4.0 12.0 0.00 0.00 0.00 49 1008.4
20260505193607 53 254 4.0 12.0 0.00 0.00 0.00 49 1008.3
20260505193507 53 255 5.0 12.0 0.00 0.00 0.00 49 1008.3
20260505193406 53 255 5.0 12.0 0.00 0.00 0.00 49 1008.3
20260505193328 53 256 5.0 12.0 0.00 0.00 0.00 49 1008.3
20260505193206 52 255 4.0 12.0 0.00 0.00 0.00 50 1008.3
20260505193128 53 256 4.0 12.0 0.00 0.00 0.00 50 1008.2
20260505193007 52 258 4.0 11.0 0.00 0.00 0.00 49 1008.2
20260505192906 52 260 4.0 11.0 0.00 0.00 0.00 48 1008.2
20260505192827 52 259 4.0 11.0 0.00 0.00 0.00 47 1008.3
20260505192706 53 261 4.0 11.0 0.00 0.00 0.00 47 1008.3
20260505192607 53 262 4.0 11.0 0.00 0.00 0.00 47 1008.2
20260505192507 53 259 4.0 10.0 0.00 0.00 0.00 48 1008.3
20260505192406 53 258 4.0 9.0 0.00 0.00 0.00 48 1008.3
20260505192306 52 258 4.0 10.0 0.00 0.00 0.00 47 1008.3
20260505192206 52 259 4.0 10.0 0.00 0.00 0.00 47 1008.3
20260505192107 52 261 4.0 10.0 0.00 0.00 0.00 47 1008.3
20260505192006 52 265 4.0 10.0 0.00 0.00 0.00 47 1008.4
20260505191906 52 264 4.0 10.0 0.00 0.00 0.00 47 1008.4
20260505191806 52 269 4.0 10.0 0.00 0.00 0.00 48 1008.4
20260505191706 52 275 5.0 10.0 0.00 0.00 0.00 46 1008.3
20260505191628 52 277 5.0 10.0 0.00 0.00 0.00 47 1008.3
20260505191506 52 285 4.0 10.0 0.00 0.00 0.00 46 1008.1
20260505191406 52 292 4.0 10.0 0.00 0.00 0.00 46 1008.1
20260505191306 52 298 3.0 9.0 0.00 0.00 0.00 45 1008.1
20260505191206 52 301 4.0 9.0 0.00 0.00 0.00 46 1008.1
20260505191127 52 306 4.0 9.0 0.00 0.00 0.00 47 1008.1
20260505191006 52 303 3.0 9.0 0.00 0.00 0.00 48 1008.1
20260505190906 52 297 4.0 10.0 0.00 0.00 0.00 46 1008.1
20260505190827 52 293 4.0 10.0 0.00 0.00 0.00 46 1008.2
20260505190706 52 285 3.0 10.0 0.00 0.00 0.00 45 1008.2
20260505190606 52 279 4.0 10.0 0.00 0.00 0.00 45 1008.2
20260505190528 53 277 4.0 12.0 0.00 0.00 0.00 46 1008.0
20260505190407 52 276 4.0 12.0 0.00 0.00 0.00 46 1008.0
20260505190306 52 275 4.0 12.0 0.00 0.00 0.00 45 1008.0
20260505190206 52 274 4.0 12.0 0.00 0.00 0.00 46 1008.0
20260505190127 52 272 4.0 12.0 0.00 0.00 0.00 47 1008.0
20260505190007 52 275 5.0 12.0 0.00 0.00 0.00 47 1008.0
20260505185906 52 280 5.0 12.0 0.00 0.00 0.00 47 1008.0
20260505185806 52 279 5.0 12.0 0.00 0.00 0.00 47 1008.0
20260505185706 52 280 5.0 12.0 0.00 0.00 0.00 45 1007.9
20260505185606 52 283 4.0 12.0 0.00 0.00 0.00 45 1007.9
20260505185507 52 283 4.0 11.0 0.00 0.00 0.00 46 1007.9
20260505185406 52 286 4.0 11.0 0.00 0.00 0.00 45 1007.9
20260505185306 52 289 4.0 11.0 0.00 0.00 0.00 46 1007.9
20260505185206 52 290 5.0 11.0 0.00 0.00 0.00 45 1007.9
20260505185127 52 285 5.0 11.0 0.00 0.00 0.00 45 1007.9
20260505185006 52 283 5.0 11.0 0.00 0.00 0.00 45 1007.9
20260505184907 52 283 4.0 11.0 0.00 0.00 0.00 46 1008.0
20260505184806 52 288 4.0 11.0 0.00 0.00 0.00 46 1008.0
20260505184706 52 290 5.0 10.0 0.00 0.00 0.00 45 1007.9
20260505184607 52 284 5.0 13.0 0.00 0.00 0.00 45 1007.9
20260505184506 52 284 5.0 13.0 0.00 0.00 0.00 45 1007.9
20260505184406 52 283 5.0 13.0 0.00 0.00 0.00 44 1007.9
20260505184306 52 286 5.0 13.0 0.00 0.00 0.00 46 1007.9
20260505184227 52 285 5.0 13.0 0.00 0.00 0.00 45 1007.9
20260505184107 52 293 4.0 13.0 0.00 0.00 0.00 44 1007.8
20260505184006 52 294 4.0 13.0 0.00 0.00 0.00 44 1007.8
20260505183906 52 295 4.0 13.0 0.00 0.00 0.00 46 1007.8
20260505183806 52 295 4.0 13.0 0.00 0.00 0.00 45 1007.8
20260505183706 52 295 3.0 13.0 0.00 0.00 0.00 45 1007.8
20260505183628 52 296 3.0 13.0 0.00 0.00 0.00 45 1007.8
20260505183506 52 300 3.0 8.0 0.00 0.00 0.00 44 1007.7
20260505183406 52 293 3.0 8.0 0.00 0.00 0.00 45 1007.7
20260505183306 52 279 3.0 9.0 0.00 0.00 0.00 44 1007.7
20260505183206 52 271 3.0 9.0 0.00 0.00 0.00 45 1007.7
20260505183106 52 270 3.0 9.0 0.00 0.00 0.00 44 1007.7
20260505183007 52 267 3.0 9.0 0.00 0.00 0.00 46 1007.7
20260505182906 52 265 3.0 9.0 0.00 0.00 0.00 44 1007.7
20260505182806 52 265 3.0 9.0 0.00 0.00 0.00 46 1007.8
20260505182706 52 266 3.0 9.0 0.00 0.00 0.00 45 1007.8
20260505182627 52 268 3.0 9.0 0.00 0.00 0.00 45 1007.8
20260505182506 52 274 3.0 9.0 0.00 0.00 0.00 43 1007.8
20260505182406 52 278 3.0 9.0 0.00 0.00 0.00 44 1007.8
20260505182306 53 284 2.0 8.0 0.00 0.00 0.00 46 1007.9
20260505182206 53 291 2.0 8.0 0.00 0.00 0.00 45 1007.9
20260505182106 53 291 2.0 8.0 0.00 0.00 0.00 44 1007.8
20260505182007 53 282 2.0 8.0 0.00 0.00 0.00 44 1007.8
20260505181907 53 282 2.0 8.0 0.00 0.00 0.00 44 1007.9
20260505181806 53 277 2.0 8.0 0.00 0.00 0.00 44 1007.9
20260505181706 53 271 2.0 8.0 0.00 0.00 0.00 44 1007.9
20260505181606 53 274 3.0 7.0 0.00 0.00 0.00 45 1008.0
20260505181507 53 275 3.0 7.0 0.00 0.00 0.00 44 1008.0
20260505181407 53 277 3.0 7.0 0.00 0.00 0.00 45 1008.1
20260505181307 53 279 3.0 7.0 0.00 0.00 0.00 46 1008.1
20260505181206 52 281 3.0 7.0 0.00 0.00 0.00 47 1008.1
20260505181106 52 276 4.0 9.0 0.00 0.00 0.00 45 1008.1
20260505181006 52 273 4.0 11.0 0.00 0.00 0.00 46 1008.1
20260505180906 52 270 5.0 11.0 0.00 0.00 0.00 46 1008.1
20260505180806 51 269 5.0 11.0 0.00 0.00 0.00 45 1008.2
20260505180706 51 269 5.0 11.0 0.00 0.00 0.00 43 1008.2
20260505180607 51 267 5.0 11.0 0.00 0.00 0.00 44 1008.2
20260505180527 51 267 5.0 11.0 0.00 0.00 0.00 45 1008.2
20260505180406 51 267 5.0 11.0 0.00 0.00 0.00 44 1008.2
20260505180306 51 266 5.0 11.0 0.00 0.00 0.00 44 1008.3
20260505180227 51 265 5.0 11.0 0.00 0.00 0.00 42 1008.3
20260505180106 52 264 5.0 11.0 0.00 0.00 0.00 43 1008.2
20260505180007 52 266 4.0 11.0 0.00 0.00 0.00 42 1008.2
20260505175906 52 268 4.0 10.0 0.00 0.00 0.00 43 1008.2
20260505175827 52 269 4.0 10.0 0.00 0.00 0.00 43 1008.1
20260505175706 52 267 4.0 10.0 0.00 0.00 0.00 42 1008.1
20260505175606 52 262 4.0 10.0 0.00 0.00 0.00 43 1008.1
20260505175506 52 258 4.0 10.0 0.00 0.00 0.00 44 1008.0
20260505175406 52 255 4.0 10.0 0.00 0.00 0.00 44 1008.0
20260505175306 52 254 4.0 10.0 0.00 0.00 0.00 42 1008.0
20260505175206 52 252 4.0 10.0 0.00 0.00 0.00 42 1008.0
20260505175106 52 254 4.0 14.0 0.00 0.00 0.00 44 1008.0
20260505175006 52 254 4.0 14.0 0.00 0.00 0.00 45 1007.9
20260505174906 52 257 5.0 14.0 0.00 0.00 0.00 44 1007.9
20260505174827 52 260 5.0 14.0 0.00 0.00 0.00 44 1007.8
20260505174706 52 262 5.0 14.0 0.00 0.00 0.00 43 1007.8
20260505174606 52 262 5.0 14.0 0.00 0.00 0.00 43 1007.8
20260505174506 52 264 5.0 14.0 0.00 0.00 0.00 42 1007.8
20260505174406 52 266 5.0 14.0 0.00 0.00 0.00 42 1007.8
20260505174306 52 266 5.0 14.0 0.00 0.00 0.00 43 1007.8
20260505174227 52 267 5.0 14.0 0.00 0.00 0.00 42 1007.8
20260505174106 52 272 4.0 11.0 0.00 0.00 0.00 43 1007.8
20260505174006 52 276 4.0 11.0 0.00 0.00 0.00 42 1007.6
20260505173906 52 274 4.0 11.0 0.00 0.00 0.00 42 1007.6
20260505173806 52 273 4.0 11.0 0.00 0.00 0.00 42 1007.6
20260505173706 52 276 4.0 9.0 0.00 0.00 0.00 41 1007.6
20260505173606 52 279 4.0 8.0 0.00 0.00 0.00 41 1007.6
20260505173527 52 276 4.0 8.0 0.00 0.00 0.00 42 1007.7
20260505173427 52 273 4.0 10.0 0.00 0.00 0.00 42 1007.7
20260505173306 52 275 4.0 10.0 0.00 0.00 0.00 41 1007.6
20260505173206 52 276 3.0 10.0 0.00 0.00 0.00 41 1007.3
20260505173106 52 274 3.0 10.0 0.00 0.00 0.00 42 1007.3
20260505173007 52 270 4.0 10.0 0.00 0.00 0.00 42 1007.2
20260505172906 52 267 4.0 11.0 0.00 0.00 0.00 41 1007.3
20260505172806 52 266 3.0 11.0 0.00 0.00 0.00 42 1007.3
20260505172706 52 264 3.0 11.0 0.00 0.00 0.00 42 1007.3
20260505172606 53 269 4.0 11.0 0.00 0.00 0.00 42 1007.4
20260505172506 53 277 4.0 11.0 0.00 0.00 0.00 42 1007.4
20260505172427 53 283 4.0 11.0 0.00 0.00 0.00 44 1007.4
20260505172306 52 286 4.0 11.0 0.00 0.00 0.00 43 1007.4
20260505172206 52 282 4.0 11.0 0.00 0.00 0.00 43 1007.6
20260505172106 52 275 4.0 11.0 0.00 0.00 0.00 42 1007.6
20260505172006 52 276 5.0 11.0 0.00 0.00 0.00 44 1007.6
20260505171906 52 283 5.0 11.0 0.00 0.00 0.00 44 1007.5
20260505171807 51 282 5.0 11.0 0.00 0.00 0.00 43 1007.5
20260505171707 51 276 5.0 11.0 0.00 0.00 0.00 42 1007.4
20260505171606 52 272 5.0 11.0 0.00 0.00 0.00 42 1007.5
20260505171506 52 268 5.0 11.0 0.00 0.00 0.00 42 1007.5
20260505171406 52 269 4.0 11.0 0.00 0.00 0.00 42 1007.6
20260505171306 52 267 5.0 11.0 0.00 0.00 0.00 42 1007.6
20260505171206 52 265 5.0 12.0 0.00 0.00 0.00 43 1007.6
20260505171127 52 265 5.0 12.0 0.00 0.00 0.00 43 1007.6
20260505171006 52 266 5.0 15.0 0.00 0.00 0.00 42 1007.6
20260505170906 52 259 5.0 15.0 0.00 0.00 0.00 44 1007.4
20260505170807 52 257 5.0 15.0 0.00 0.00 0.00 43 1007.4
20260505170727 52 260 5.0 15.0 0.00 0.00 0.00 44 1007.5
20260505170606 52 259 5.0 15.0 0.00 0.00 0.00 43 1007.5
20260505170506 52 259 5.0 15.0 0.00 0.00 0.00 43 1007.5
20260505170406 52 257 5.0 15.0 0.00 0.00 0.00 45 1007.5
20260505170306 52 254 5.0 15.0 0.00 0.00 0.00 42 1007.6
20260505170206 52 253 5.0 15.0 0.00 0.00 0.00 42 1007.6
20260505170127 52 255 5.0 15.0 0.00 0.00 0.00 42 1007.5
20260505170006 52 257 5.0 11.0 0.00 0.00 0.00 42 1007.5
20260505165906 52 258 4.0 11.0 0.00 0.00 0.00 42 1007.5
20260505165827 52 259 4.0 10.0 0.00 0.00 0.00 43 1007.5
20260505165727 52 262 4.0 10.0 0.00 0.00 0.00 43 1007.4
20260505165627 52 267 4.0 10.0 0.00 0.00 0.00 44 1007.5
20260505165506 52 272 5.0 11.0 0.00 0.00 0.00 45 1007.5
20260505165406 52 273 5.0 11.0 0.00 0.00 0.00 42 1007.4
20260505165306 52 275 4.0 11.0 0.00 0.00 0.00 44 1007.5
20260505165227 52 280 4.0 11.0 0.00 0.00 0.00 45 1007.5
20260505165106 52 282 4.0 11.0 0.00 0.00 0.00 44 1007.5
20260505165006 51 284 4.0 11.0 0.00 0.00 0.00 44 1007.4
20260505164927 51 286 4.0 11.0 0.00 0.00 0.00 44 1007.4
20260505164806 52 288 4.0 11.0 0.00 0.00 0.00 45 1007.4
20260505164706 51 281 4.0 11.0 0.00 0.00 0.00 45 1007.4
20260505164606 51 283 3.0 11.0 0.00 0.00 0.00 44 1007.5
20260505164506 52 279 3.0 10.0 0.00 0.00 0.00 44 1007.6
20260505164406 52 274 3.0 9.0 0.00 0.00 0.00 43 1007.6
20260505164306 52 270 4.0 12.0 0.00 0.00 0.00 45 1007.5
20260505164227 52 266 4.0 12.0 0.00 0.00 0.00 45 1007.5
20260505164106 52 263 4.0 12.0 0.00 0.00 0.00 46 1007.5
20260505164006 52 265 5.0 12.0 0.00 0.00 0.00 46 1007.5
20260505163906 52 263 5.0 13.0 0.00 0.00 0.00 46 1007.5
20260505163806 51 266 5.0 13.0 0.00 0.00 0.00 46 1007.5
20260505163706 51 267 5.0 13.0 0.00 0.00 0.00 46 1007.5
20260505163606 51 267 5.0 13.0 0.00 0.00 0.00 46 1007.4
20260505163527 51 269 5.0 13.0 0.00 0.00 0.00 46 1007.4
20260505163427 51 273 5.0 13.0 0.00 0.00 0.00 45 1007.5
20260505163306 52 284 5.0 13.0 0.00 0.00 0.00 45 1007.5
20260505163206 52 283 4.0 13.0 0.00 0.00 0.00 46 1007.5
20260505163127 52 286 4.0 13.0 0.00 0.00 0.00 46 1007.5
20260505163007 52 283 4.0 13.0 0.00 0.00 0.00 45 1007.4
20260505162906 52 289 4.0 11.0 0.00 0.00 0.00 43 1007.4
20260505162806 52 288 4.0 11.0 0.00 0.00 0.00 46 1007.3
20260505162706 52 288 4.0 11.0 0.00 0.00 0.00 47 1007.3
20260505162606 52 286 4.0 11.0 0.00 0.00 0.00 44 1007.3
20260505162506 52 286 4.0 11.0 0.00 0.00 0.00 42 1007.3
20260505162406 52 280 4.0 11.0 0.00 0.00 0.00 45 1007.3
20260505162307 52 275 4.0 10.0 0.00 0.00 0.00 45 1007.3
20260505162206 52 279 4.0 10.0 0.00 0.00 0.00 44 1007.3
20260505162127 52 279 4.0 10.0 0.00 0.00 0.00 43 1007.3
20260505162006 52 274 5.0 10.0 0.00 0.00 0.00 44 1007.4
20260505161906 52 271 5.0 10.0 0.00 0.00 0.00 42 1007.4
20260505161806 52 266 5.0 10.0 0.00 0.00 0.00 44 1007.4
20260505161706 52 268 5.0 10.0 0.00 0.00 0.00 42 1007.4
20260505161606 52 266 5.0 10.0 0.00 0.00 0.00 42 1007.4
20260505161506 52 262 4.0 10.0 0.00 0.00 0.00 44 1007.4
20260505161406 52 263 4.0 10.0 0.00 0.00 0.00 45 1007.4
20260505161306 52 266 4.0 10.0 0.00 0.00 0.00 44 1007.4
20260505161227 52 267 4.0 10.0 0.00 0.00 0.00 44 1007.4
20260505161106 52 271 4.0 10.0 0.00 0.00 0.00 43 1007.4
20260505161006 52 282 3.0 10.0 0.00 0.00 0.00 45 1007.5
20260505160906 52 285 3.0 10.0 0.00 0.00 0.00 44 1007.4
20260505160827 52 290 3.0 10.0 0.00 0.00 0.00 44 1007.4
20260505160706 52 291 3.0 10.0 0.00 0.00 0.00 45 1007.4
20260505160606 52 299 3.0 8.0 0.00 0.00 0.00 44 1007.4
20260505160506 52 306 3.0 8.0 0.00 0.00 0.00 43 1007.5
20260505160406 52 311 3.0 8.0 0.00 0.00 0.00 43 1007.4
20260505160306 52 314 3.0 8.0 0.00 0.00 0.00 43 1007.4
20260505160206 52 314 3.0 8.0 0.00 0.00 0.00 43 1007.4
20260505160127 52 309 3.0 8.0 0.00 0.00 0.00 43 1007.4
20260505153306 50 280 5.0 12.0 0.00 0.00 0.00 44 1007.2
20260505153206 50 280 5.0 12.0 0.00 0.00 0.00 44 1007.2
20260505153127 50 284 5.0 12.0 0.00 0.00 0.00 44 1007.1
20260505153006 50 285 5.0 12.0 0.00 0.00 0.00 45 1007.1
20260505152906 50 285 5.0 12.0 0.00 0.00 0.00 45 1007.2
20260505152806 50 288 5.0 12.0 0.00 0.00 0.00 45 1007.2
20260505152706 50 291 4.0 12.0 0.00 0.00 0.00 44 1007.2
20260505152606 50 289 4.0 12.0 0.00 0.00 0.00 44 1007.2
20260505152506 50 289 4.0 12.0 0.00 0.00 0.00 44 1007.3
20260505152406 50 289 4.0 12.0 0.00 0.00 0.00 44 1007.3
20260505152306 50 290 4.0 11.0 0.00 0.00 0.00 44 1007.4
20260505152206 50 288 4.0 11.0 0.00 0.00 0.00 43 1007.4
20260505152127 50 284 4.0 11.0 0.00 0.00 0.00 44 1007.4
20260505152006 50 281 4.0 15.0 0.00 0.00 0.00 43 1007.5
20260505151906 50 283 4.0 15.0 0.00 0.00 0.00 44 1007.5
20260505151806 50 282 5.0 15.0 0.00 0.00 0.00 45 1007.5
20260505151706 50 282 4.0 15.0 0.00 0.00 0.00 45 1007.5
20260505151606 50 285 5.0 15.0 0.00 0.00 0.00 45 1007.4
20260505151506 50 289 4.0 15.0 0.00 0.00 0.00 46 1007.4
20260505151406 50 290 4.0 15.0 0.00 0.00 0.00 46 1007.4
20260505151327 50 290 4.0 15.0 0.00 0.00 0.00 46 1007.5
20260505151206 50 294 4.0 15.0 0.00 0.00 0.00 45 1007.5
20260505151106 50 298 4.0 15.0 0.00 0.00 0.00 45 1007.5
20260505151006 50 299 3.0 12.0 0.00 0.00 0.00 44 1007.5
20260505150906 50 303 3.0 11.0 0.00 0.00 0.00 46 1007.5
20260505150806 50 305 3.0 7.0 0.00 0.00 0.00 48 1007.4
20260505150706 50 304 3.0 8.0 0.00 0.00 0.00 47 1007.4
20260505150627 50 303 3.0 8.0 0.00 0.00 0.00 47 1007.4
20260505150527 50 300 3.0 10.0 0.00 0.00 0.00 46 1007.5
20260505150406 50 296 4.0 10.0 0.00 0.00 0.00 46 1007.5
20260505150306 50 291 4.0 12.0 0.00 0.00 0.00 46 1007.6
20260505150227 50 289 4.0 12.0 0.00 0.00 0.00 46 1007.6
20260505150105 50 283 4.0 12.0 0.00 0.00 0.00 46 1007.6